VK4ZU-13 Weather Reports


time (UTC)temp
C
wind
direction
speed
KPH
gust
KPH
rain 1hr
cm
rain 24hr
cm
rain mn
cm
humidity
%
barometer
mb
20260510040056 23 108 6.4 14.5 0.00 0.00 0.00 62 1024.9
20260510035953 23 5 6.4 14.5 0.00 0.00 0.00 61 1025.0
20260510035855 23 97 6.4 14.5 0.00 0.00 0.00 62 1024.9
20260510035747 23 96 6.4 14.5 0.00 0.00 0.00 62 1024.9
20260510035713 23 78 6.4 14.5 0.00 0.00 0.00 62 1024.8
20260510035650 23 65 6.4 14.5 0.00 0.00 0.00 62 1024.9
20260510035436 23 96 6.4 14.5 0.00 0.00 0.00 61 1024.9
20260510035325 23 164 6.4 14.5 0.00 0.00 0.00 62 1024.9
20260510035216 23 355 6.4 11.3 0.00 0.00 0.00 61 1024.8
20260510035105 23 106 4.8 16.1 0.00 0.00 0.00 61 1024.8
20260510034957 24 56 4.8 16.1 0.00 0.00 0.00 61 1024.8
20260510034848 24 122 4.8 16.1 0.00 0.00 0.00 62 1024.8
20260510034748 24 126 4.8 16.1 0.00 0.00 0.00 61 1024.9
20260510034650 24 77 3.2 16.1 0.00 0.00 0.00 62 1024.9
20260510034540 24 49 3.2 16.1 0.00 0.00 0.00 61 1024.8
20260510034436 24 90 3.2 16.1 0.00 0.00 0.00 61 1024.8
20260510034338 24 146 3.2 16.1 0.00 0.00 0.00 62 1024.9
20260510034228 24 143 3.2 16.1 0.00 0.00 0.00 61 1024.8
20260510034151 24 182 3.2 12.9 0.00 0.00 0.00 62 1024.9
20260510034012 24 182 3.2 12.9 0.00 0.00 0.00 61 1024.9
20260510033900 24 188 3.2 12.9 0.00 0.00 0.00 62 1024.9
20260510033801 24 159 3.2 12.9 0.00 0.00 0.00 63 1024.9
20260510033702 24 96 3.2 12.9 0.00 0.00 0.00 61 1024.8
20260510033551 24 143 3.2 12.9 0.00 0.00 0.00 62 1024.8
20260510033442 24 84 3.2 12.9 0.00 0.00 0.00 61 1024.8
20260510033332 24 134 3.2 8.0 0.00 0.00 0.00 62 1024.8
20260510033221 25 115 3.2 6.4 0.00 0.00 0.00 62 1024.8
20260510033112 24 63 3.2 8.0 0.00 0.00 0.00 61 1024.8
20260510033002 24 34 3.2 8.0 0.00 0.00 0.00 61 1024.7
20260510032900 24 137 3.2 8.0 0.00 0.00 0.00 61 1024.7
20260510032802 24 77 3.2 8.0 0.00 0.00 0.00 62 1024.7
20260510032652 24 43 3.2 8.0 0.00 0.00 0.00 62 1024.7
20260510032547 24 51 3.2 8.0 0.00 0.00 0.00 62 1024.8
20260510032432 24 351 3.2 8.0 0.00 0.00 0.00 62 1024.8
20260510032322 24 65 3.2 8.0 0.00 0.00 0.00 62 1024.9
20260510032211 24 236 3.2 14.5 0.00 0.00 0.00 62 1024.8
20260510032102 24 67 3.2 14.5 0.00 0.00 0.00 61 1024.8
20260510031952 24 80 3.2 14.5 0.00 0.00 0.00 62 1024.9
20260510031844 24 36 4.8 14.5 0.00 0.00 0.00 60 1024.9
20260510031746 24 49 4.8 14.5 0.00 0.00 0.00 61 1024.9
20260510031646 24 117 4.8 14.5 0.00 0.00 0.00 61 1024.9
20260510031536 24 11 4.8 14.5 0.00 0.00 0.00 59 1024.9
20260510031426 24 36 3.2 14.5 0.00 0.00 0.00 60 1024.9
20260510031323 24 102 3.2 14.5 0.00 0.00 0.00 60 1024.9
20260510031223 24 167 3.2 14.5 0.00 0.00 0.00 60 1024.9
20260510031142 24 164 3.2 14.5 0.00 0.00 0.00 61 1025.0
20260510031007 24 97 3.2 14.5 0.00 0.00 0.00 59 1025.0
20260510030856 24 132 3.2 14.5 0.00 0.00 0.00 61 1024.9
20260510030743 24 109 3.2 14.5 0.00 0.00 0.00 59 1024.9
20260510030639 24 105 3.2 14.5 0.00 0.00 0.00 58 1024.8
20260510030538 24 141 3.2 14.5 0.00 0.00 0.00 60 1025.0
20260510030441 25 78 3.2 14.5 0.00 0.00 0.00 59 1024.9
20260510030347 25 59 3.2 14.5 0.00 0.00 0.00 57 1024.9
20260510030217 25 113 4.8 14.5 0.00 0.00 0.00 57 1024.8
20260510030107 25 70 4.8 14.5 0.00 0.00 0.00 57 1024.9
20260510030005 25 108 4.8 14.5 0.00 0.00 0.00 61 1024.9
20260510025903 25 90 4.8 14.5 0.00 0.00 0.00 60 1024.9
20260510025803 25 143 4.8 14.5 0.00 0.00 0.00 59 1024.8
20260510025703 25 109 3.2 14.5 0.00 0.00 0.00 57 1024.9
20260510025642 25 186 3.2 14.5 0.00 0.00 0.00 58 1025.1
20260510025440 25 50 3.2 11.3 0.00 0.00 0.00 57 1024.9
20260510025341 25 349 3.2 11.3 0.00 0.00 0.00 57 1025.0
20260510025230 25 167 3.2 11.3 0.00 0.00 0.00 55 1025.2
20260510025120 25 183 3.2 9.7 0.00 0.00 0.00 58 1025.2
20260510025010 25 112 3.2 9.7 0.00 0.00 0.00 59 1025.2
20260510024903 25 114 3.2 8.0 0.00 0.00 0.00 59 1025.2
20260510024755 25 165 3.2 8.0 0.00 0.00 0.00 58 1025.1
20260510024655 24 156 3.2 8.0 0.00 0.00 0.00 62 1025.2
20260510024553 24 70 3.2 8.0 0.00 0.00 0.00 59 1025.2
20260510024448 24 186 3.2 8.0 0.00 0.00 0.00 60 1025.2
20260510024347 24 88 3.2 8.0 0.00 0.00 0.00 59 1025.2
20260510024245 24 51 3.2 8.0 0.00 0.00 0.00 59 1025.2
20260510024148 24 344 3.2 8.0 0.00 0.00 0.00 58 1025.2
20260510024129 25 121 3.2 12.9 0.00 0.00 0.00 59 1025.2
20260510023932 24 75 4.8 12.9 0.00 0.00 0.00 57 1025.2
20260510023824 25 92 4.8 14.5 0.00 0.00 0.00 59 1025.2
20260510023712 25 30 4.8 14.5 0.00 0.00 0.00 60 1025.3
20260510023602 25 115 4.8 14.5 0.00 0.00 0.00 62 1025.2
20260510023452 24 109 4.8 14.5 0.00 0.00 0.00 60 1025.2
20260510023344 24 151 6.4 14.5 0.00 0.00 0.00 62 1025.2
20260510023231 24 113 4.8 14.5 0.00 0.00 0.00 59 1025.3
20260510023122 25 144 4.8 14.5 0.00 0.00 0.00 59 1025.3
20260510023012 25 119 4.8 14.5 0.00 0.00 0.00 58 1025.2
20260510022904 25 130 4.8 12.9 0.00 0.00 0.00 59 1025.2
20260510022804 25 169 3.2 11.3 0.00 0.00 0.00 58 1025.2
20260510022706 25 70 3.2 11.3 0.00 0.00 0.00 58 1025.4
20260510022617 25 120 3.2 8.0 0.00 0.00 0.00 57 1025.3
20260510022441 25 61 3.2 8.0 0.00 0.00 0.00 58 1025.3
20260510022334 25 52 3.2 6.4 0.00 0.00 0.00 58 1025.3
20260510022220 25 17 3.2 11.3 0.00 0.00 0.00 60 1025.4
20260510022110 25 5 3.2 11.3 0.00 0.00 0.00 57 1025.4
20260510022001 25 11 3.2 11.3 0.00 0.00 0.00 58 1025.4
20260510021850 25 29 3.2 11.3 0.00 0.00 0.00 60 1025.4
20260510021739 25 78 3.2 11.3 0.00 0.00 0.00 60 1025.4
20260510021630 25 127 3.2 11.3 0.00 0.00 0.00 60 1025.4
20260510021525 25 61 3.2 11.3 0.00 0.00 0.00 59 1025.4
20260510021425 25 196 3.2 11.3 0.00 0.00 0.00 62 1025.3
20260510021323 25 170 3.2 11.3 0.00 0.00 0.00 60 1025.3
20260510021219 25 178 3.2 11.3 0.00 0.00 0.00 59 1025.3
20260510021141 25 223 3.2 11.3 0.00 0.00 0.00 57 1025.4
20260510021116 25 121 3.2 11.3 0.00 0.00 0.00 59 1025.3
20260510020900 25 180 3.2 11.3 0.00 0.00 0.00 57 1025.3
20260510020758 25 146 3.2 11.3 0.00 0.00 0.00 65 1025.3
20260510020654 25 223 3.2 11.3 0.00 0.00 0.00 57 1025.4
20260510020554 25 146 3.2 11.3 0.00 0.00 0.00 64 1025.5
20260510020452 24 160 3.2 11.3 0.00 0.00 0.00 62 1025.5
20260510020348 24 78 3.2 11.3 0.00 0.00 0.00 64 1025.5
20260510020252 24 142 3.2 12.9 0.00 0.00 0.00 64 1025.5
20260510020138 24 124 3.2 12.9 0.00 0.00 0.00 63 1025.6
20260510020028 24 187 3.2 12.9 0.00 0.00 0.00 62 1025.6
20260510015918 25 199 3.2 12.9 0.00 0.00 0.00 60 1025.6
20260510015808 25 209 3.2 12.9 0.00 0.00 0.00 62 1025.6
20260510015658 25 215 3.2 12.9 0.00 0.00 0.00 62 1025.7
20260510015555 25 200 3.2 12.9 0.00 0.00 0.00 64 1025.6
20260510015346 24 91 3.2 12.9 0.00 0.00 0.00 64 1025.7
20260510015240 24 135 3.2 8.0 0.00 0.00 0.00 64 1025.6
20260510015126 24 122 3.2 8.0 0.00 0.00 0.00 62 1025.6
20260510015019 24 128 3.2 8.0 0.00 0.00 0.00 62 1025.6
20260510014918 24 113 3.2 8.0 0.00 0.00 0.00 63 1025.6
20260510014821 24 79 3.2 8.0 0.00 0.00 0.00 65 1025.7
20260510014715 24 130 3.2 8.0 0.00 0.00 0.00 63 1025.7
20260510014610 24 236 3.2 8.0 0.00 0.00 0.00 63 1025.8
20260510014511 24 144 1.6 8.0 0.00 0.00 0.00 63 1025.7
20260510014359 24 68 1.6 6.4 0.00 0.00 0.00 67 1025.7
20260510014250 23 11 1.6 6.4 0.00 0.00 0.00 67 1025.7
20260510014140 23 151 1.6 6.4 0.00 0.00 0.00 65 1025.7
20260510014037 23 109 1.6 6.4 0.00 0.00 0.00 67 1025.7
20260510013940 23 115 1.6 6.4 0.00 0.00 0.00 66 1025.7
20260510013828 23 57 1.6 6.4 0.00 0.00 0.00 65 1025.7
20260510013721 23 64 1.6 6.4 0.00 0.00 0.00 65 1025.8
20260510013608 23 87 1.6 6.4 0.00 0.00 0.00 67 1025.8
20260510013458 23 154 1.6 6.4 0.00 0.00 0.00 67 1025.9
20260510013348 23 164 1.6 6.4 0.00 0.00 0.00 67 1026.0
20260510013237 23 164 1.6 6.4 0.00 0.00 0.00 67 1026.1
20260510013128 23 59 1.6 6.4 0.00 0.00 0.00 66 1026.2
20260510013018 23 103 1.6 11.3 0.00 0.00 0.00 66 1026.1
20260510012910 23 103 3.2 11.3 0.00 0.00 0.00 66 1026.1
20260510012806 23 103 3.2 11.3 0.00 0.00 0.00 66 1026.1
20260510012702 23 103 3.2 11.3 0.00 0.00 0.00 64 1026.2
20260510012601 23 26 3.2 11.3 0.00 0.00 0.00 67 1026.2
20260510012456 23 135 3.2 12.9 0.00 0.00 0.00 66 1026.2
20260510012356 23 148 3.2 12.9 0.00 0.00 0.00 64 1026.1
20260510012246 23 80 4.8 12.9 0.00 0.00 0.00 64 1026.2
20260510012140 23 27 4.8 12.9 0.00 0.00 0.00 64 1026.3
20260510012032 23 146 3.2 12.9 0.00 0.00 0.00 63 1026.2
20260510011930 24 116 3.2 12.9 0.00 0.00 0.00 63 1026.3
20260510011830 24 323 3.2 12.9 0.00 0.00 0.00 63 1026.1
20260510011720 24 98 4.8 12.9 0.00 0.00 0.00 64 1026.1
20260510011616 24 59 4.8 14.5 0.00 0.00 0.00 62 1026.1
20260510011513 24 120 4.8 14.5 0.00 0.00 0.00 65 1026.1
20260510011414 25 189 4.8 14.5 0.00 0.00 0.00 64 1026.1
20260510011304 24 246 4.8 14.5 0.00 0.00 0.00 62 1026.1
20260510011154 24 193 4.8 14.5 0.00 0.00 0.00 62 1026.1
20260510011044 24 126 4.8 14.5 0.00 0.00 0.00 65 1026.0
20260510010945 24 231 4.8 14.5 0.00 0.00 0.00 66 1026.0
20260510010844 24 101 4.8 14.5 0.00 0.00 0.00 65 1026.0
20260510010734 23 130 4.8 14.5 0.00 0.00 0.00 65 1026.0
20260510010635 23 151 4.8 14.5 0.00 0.00 0.00 66 1026.0
20260510010536 23 122 3.2 14.5 0.00 0.00 0.00 69 1026.0
20260510010425 23 138 4.8 14.5 0.00 0.00 0.00 68 1026.0
20260510010321 23 138 4.8 14.5 0.00 0.00 0.00 69 1026.0
20260510010220 22 126 4.8 14.5 0.00 0.00 0.00 68 1026.0
20260510010125 22 85 3.2 14.5 0.00 0.00 0.00 67 1026.0
20260510010011 22 132 3.2 14.5 0.00 0.00 0.00 67 1026.1
20260510005900 22 43 3.2 14.5 0.00 0.00 0.00 68 1026.0
20260510005750 22 150 4.8 14.5 0.00 0.00 0.00 67 1026.1
20260510005640 22 145 4.8 14.5 0.00 0.00 0.00 67 1026.1
20260510005530 22 143 3.2 14.5 0.00 0.00 0.00 68 1026.2
20260510005432 23 135 3.2 14.5 0.00 0.00 0.00 68 1026.2
20260510005328 23 79 3.2 9.7 0.00 0.00 0.00 67 1026.2
20260510005225 23 148 3.2 9.7 0.00 0.00 0.00 68 1026.3
20260510005123 23 119 3.2 9.7 0.00 0.00 0.00 69 1026.2
20260510005022 23 123 3.2 9.7 0.00 0.00 0.00 67 1026.2
20260510004912 23 74 3.2 9.7 0.00 0.00 0.00 67 1026.2
20260510004802 23 58 3.2 9.7 0.00 0.00 0.00 67 1026.1
20260510004652 23 105 3.2 9.7 0.00 0.00 0.00 69 1026.3
20260510004549 23 220 3.2 9.7 0.00 0.00 0.00 67 1026.3
20260510004446 23 220 1.6 9.7 0.00 0.00 0.00 67 1026.2
20260510004347 23 167 1.6 8.0 0.00 0.00 0.00 67 1026.2
20260510004236 23 168 1.6 8.0 0.00 0.00 0.00 67 1026.1
20260510004126 23 159 1.6 8.0 0.00 0.00 0.00 68 1026.2
20260510004040 23 219 1.6 8.0 0.00 0.00 0.00 67 1026.4
20260510004013 23 180 1.6 8.0 0.00 0.00 0.00 69 1026.4
20260510003813 23 225 1.6 8.0 0.00 0.00 0.00 69 1026.4
20260510003705 23 225 1.6 8.0 0.00 0.00 0.00 68 1026.3
20260510003557 23 205 1.6 8.0 0.00 0.00 0.00 70 1026.4
20260510003450 23 205 3.2 8.0 0.00 0.00 0.00 69 1026.4
20260510003348 23 239 3.2 8.0 0.00 0.00 0.00 69 1026.4
20260510003248 22 222 3.2 12.9 0.00 0.00 0.00 68 1026.5
20260510003138 22 249 3.2 12.9 0.00 0.00 0.00 68 1026.6
20260510003028 22 181 3.2 12.9 0.00 0.00 0.00 68 1026.5
20260510002917 23 181 3.2 12.9 0.00 0.00 0.00 69 1026.5
20260510002809 22 181 3.2 12.9 0.00 0.00 0.00 70 1026.6
20260510002700 22 181 3.2 12.9 0.00 0.00 0.00 68 1026.6
20260510002601 23 181 3.2 12.9 0.00 0.00 0.00 68 1026.7
20260510002458 23 215 3.2 12.9 0.00 0.00 0.00 68 1026.6
20260510002353 23 213 3.2 12.9 0.00 0.00 0.00 68 1026.5
20260510002256 23 229 3.2 6.4 0.00 0.00 0.00 69 1026.5
20260510002145 23 198 1.6 4.8 0.00 0.00 0.00 69 1026.5
20260510002040 23 188 3.2 4.8 0.00 0.00 0.00 68 1026.5
20260510001934 23 215 3.2 4.8 0.00 0.00 0.00 67 1026.4
20260510001832 23 263 1.6 4.8 0.00 0.00 0.00 66 1026.4
20260510001732 23 216 1.6 4.8 0.00 0.00 0.00 67 1026.5
20260510001628 23 248 1.6 4.8 0.00 0.00 0.00 67 1026.5
20260510001526 23 252 1.6 9.7 0.00 0.00 0.00 67 1026.4
20260510001425 23 121 1.6 9.7 0.00 0.00 0.00 67 1026.4
20260510001318 23 144 1.6 11.3 0.00 0.00 0.00 69 1026.6
20260510001209 23 150 1.6 11.3 0.00 0.00 0.00 67 1026.6
20260510001059 23 269 1.6 11.3 0.00 0.00 0.00 65 1026.6
20260510001015 23 175 1.6 11.3 0.00 0.00 0.00 68 1026.6
20260510000948 23 309 1.6 11.3 0.00 0.00 0.00 67 1026.6
20260510000747 23 260 1.6 11.3 0.00 0.00 0.00 66 1026.6
20260510000640 23 247 1.6 11.3 0.00 0.00 0.00 64 1026.7
20260510000532 23 76 1.6 11.3 0.00 0.00 0.00 65 1026.6
20260510000419 23 49 0.0 4.8 0.00 0.00 0.00 65 1026.7
20260510000312 23 175 1.6 4.8 0.00 0.00 0.00 65 1026.5
20260510000204 23 175 1.6 4.8 0.00 0.00 0.00 65 1026.5
20260510000052 23 120 1.6 3.2 0.00 0.00 0.00 67 1026.5
20260509235942 23 120 1.6 4.8 0.00 0.00 0.00 69 1026.5
20260509235836 23 315 1.6 14.5 0.00 0.00 0.00 68 1026.4
20260509235733 23 315 1.6 14.5 0.00 0.00 0.00 66 1026.6
20260509235633 23 344 1.6 14.5 0.00 0.00 0.00 68 1026.4
20260509235532 23 344 3.2 14.5 0.00 0.00 0.00 68 1026.4
20260509235424 23 15 3.2 14.5 0.00 0.00 0.00 70 1026.4
20260509235321 23 5 3.2 14.5 0.00 0.00 0.00 69 1026.4
20260509235222 22 297 3.2 14.5 0.00 0.00 0.00 69 1026.3
20260509235112 22 28 4.8 14.5 0.00 0.00 0.00 69 1026.3
20260509235007 22 10 4.8 14.5 0.00 0.00 0.00 69 1026.3
20260509234859 22 109 4.8 14.5 0.00 0.00 0.00 69 1026.3
20260509234745 22 232 4.8 14.5 0.00 0.00 0.00 68 1026.3
20260509234635 22 232 4.8 14.5 0.00 0.00 0.00 68 1026.4
20260509234607 22 79 3.2 14.5 0.00 0.00 0.00 72 1026.4
20260509234419 22 50 3.2 14.5 0.00 0.00 0.00 70 1026.4
20260509234310 22 49 3.2 14.5 0.00 0.00 0.00 70 1026.3
20260509234159 22 63 1.6 14.5 0.00 0.00 0.00 71 1026.3
20260509234051 22 52 1.6 14.5 0.00 0.00 0.00 71 1026.3
20260509233945 22 14 1.6 14.5 0.00 0.00 0.00 70 1026.2
20260509233903 22 86 0.0 3.2 0.00 0.00 0.00 72 1026.4
20260509233730 21 313 0.0 3.2 0.00 0.00 0.00 71 1026.3
20260509233632 21 303 0.0 3.2 0.00 0.00 0.00 71 1026.3
20260509233523 21 303 0.0 3.2 0.00 0.00 0.00 72 1026.4
20260509233423 21 303 0.0 3.2 0.00 0.00 0.00 73 1026.4
20260509233321 21 303 0.0 3.2 0.00 0.00 0.00 72 1026.4
20260509233220 21 303 1.6 3.2 0.00 0.00 0.00 73 1026.2
20260509233114 21 303 0.0 3.2 0.00 0.00 0.00 73 1026.3
20260509233012 21 73 1.6 4.8 0.00 0.00 0.00 73 1026.2
20260509232913 21 73 1.6 4.8 0.00 0.00 0.00 73 1026.3
20260509232806 21 355 1.6 4.8 0.00 0.00 0.00 73 1026.3
20260509232705 21 258 1.6 4.8 0.00 0.00 0.00 73 1026.2
20260509232607 20 258 0.0 4.8 0.00 0.00 0.00 73 1026.2
20260509232505 20 258 0.0 4.8 0.00 0.00 0.00 74 1026.1
20260509232410 20 258 1.6 4.8 0.00 0.00 0.00 72 1026.2
20260509232306 20 258 0.0 4.8 0.00 0.00 0.00 73 1026.1
20260509232159 20 258 0.0 4.8 0.00 0.00 0.00 73 1026.1
20260509232059 20 282 0.0 3.2 0.00 0.00 0.00 73 1026.0
20260509231950 20 286 0.0 3.2 0.00 0.00 0.00 75 1026.0
20260509231839 20 300 0.0 3.2 0.00 0.00 0.00 74 1026.0
20260509231730 20 300 0.0 3.2 0.00 0.00 0.00 75 1026.2
20260509231622 20 300 0.0 3.2 0.00 0.00 0.00 73 1026.1
20260509231512 20 300 0.0 3.2 0.00 0.00 0.00 74 1026.1
20260509231407 20 302 0.0 3.2 0.00 0.00 0.00 75 1026.0
20260509231255 19 302 0.0 3.2 0.00 0.00 0.00 74 1026.0
20260509231156 19 302 0.0 3.2 0.00 0.00 0.00 74 1025.9
20260509231056 19 302 0.0 3.2 0.00 0.00 0.00 74 1025.9
20260509230950 19 302 0.0 3.2 0.00 0.00 0.00 75 1026.0
20260509230844 19 302 0.0 3.2 0.00 0.00 0.00 75 1026.0
20260509230740 18 302 0.0 3.2 0.00 0.00 0.00 75 1025.9
20260509230629 18 302 0.0 3.2 0.00 0.00 0.00 75 1026.0
20260509230533 18 302 0.0 3.2 0.00 0.00 0.00 76 1026.1
20260509230422 18 37 1.6 3.2 0.00 0.00 0.00 77 1026.0
20260509230312 18 37 1.6 4.8 0.00 0.00 0.00 77 1026.1
20260509230204 18 37 1.6 6.4 0.00 0.00 0.00 77 1026.0
20260509230055 18 37 1.6 6.4 0.00 0.00 0.00 77 1026.1
20260509225943 18 37 1.6 6.4 0.00 0.00 0.00 77 1026.0
20260509225837 18 37 1.6 6.4 0.00 0.00 0.00 79 1026.0
20260509225729 18 37 1.6 6.4 0.00 0.00 0.00 77 1025.9
20260509225627 18 37 1.6 6.4 0.00 0.00 0.00 77 1025.9
20260509225528 18 37 1.6 6.4 0.00 0.00 0.00 77 1025.9
20260509225426 18 37 1.6 6.4 0.00 0.00 0.00 78 1025.9
20260509225323 17 34 1.6 6.4 0.00 0.00 0.00 79 1025.8
20260509225224 17 67 1.6 4.8 0.00 0.00 0.00 79 1025.8
20260509225117 17 56 1.6 4.8 0.00 0.00 0.00 79 1025.8
20260509225020 17 55 1.6 4.8 0.00 0.00 0.00 78 1025.8
20260509224912 17 28 1.6 4.8 0.00 0.00 0.00 79 1025.7
20260509224807 17 36 1.6 4.8 0.00 0.00 0.00 79 1025.7
20260509224703 17 44 1.6 4.8 0.00 0.00 0.00 79 1025.8
20260509224606 17 48 1.6 4.8 0.00 0.00 0.00 78 1025.7
20260509224455 17 30 1.6 4.8 0.00 0.00 0.00 78 1025.8
20260509224345 17 49 0.0 3.2 0.00 0.00 0.00 81 1025.7
20260509224240 17 327 1.6 3.2 0.00 0.00 0.00 79 1025.7
20260509224126 17 327 1.6 3.2 0.00 0.00 0.00 78 1025.7
20260509224023 17 327 1.6 3.2 0.00 0.00 0.00 79 1025.7
20260509223923 17 327 1.6 3.2 0.00 0.00 0.00 79 1025.8
20260509223821 17 12 1.6 3.2 0.00 0.00 0.00 78 1025.9
20260509223721 17 12 1.6 3.2 0.00 0.00 0.00 80 1025.9
20260509223616 17 12 1.6 3.2 0.00 0.00 0.00 80 1025.9
20260509223514 17 12 1.6 3.2 0.00 0.00 0.00 80 1025.8
20260509223413 16 12 1.6 3.2 0.00 0.00 0.00 81 1025.9
20260509223313 16 19 1.6 3.2 0.00 0.00 0.00 81 1025.9
20260509223209 16 20 1.6 3.2 0.00 0.00 0.00 80 1025.9
20260509223107 16 225 1.6 3.2 0.00 0.00 0.00 80 1025.9
20260509223007 16 225 1.6 4.8 0.00 0.00 0.00 81 1025.8
20260509222903 16 225 1.6 4.8 0.00 0.00 0.00 81 1025.8
20260509222802 16 225 1.6 4.8 0.00 0.00 0.00 81 1025.9
20260509222702 15 225 1.6 4.8 0.00 0.00 0.00 81 1026.0
20260509222556 15 225 1.6 4.8 0.00 0.00 0.00 81 1025.9
20260509222455 16 225 1.6 4.8 0.00 0.00 0.00 81 1026.0
20260509222355 16 225 1.6 4.8 0.00 0.00 0.00 81 1025.9
20260509222245 16 225 1.6 4.8 0.00 0.00 0.00 82 1025.9
20260509222140 16 225 1.6 4.8 0.00 0.00 0.00 84 1026.0
20260509222035 15 225 1.6 4.8 0.00 0.00 0.00 82 1026.0
20260509221934 15 251 3.2 4.8 0.00 0.00 0.00 82 1026.0
20260509221823 15 251 3.2 6.4 0.00 0.00 0.00 82 1026.1
20260509221716 15 251 3.2 6.4 0.00 0.00 0.00 83 1026.0
20260509221606 15 251 3.2 6.4 0.00 0.00 0.00 84 1026.0
20260509221506 15 251 1.6 6.4 0.00 0.00 0.00 84 1026.0
20260509221407 14 243 1.6 6.4 0.00 0.00 0.00 84 1026.0
20260509221305 14 248 1.6 6.4 0.00 0.00 0.00 84 1026.0
20260509221201 14 265 1.6 6.4 0.00 0.00 0.00 84 1026.0
20260509221102 14 257 0.0 6.4 0.00 0.00 0.00 84 1025.9
20260509220951 14 257 0.0 6.4 0.00 0.00 0.00 85 1025.9
20260509220841 14 215 0.0 0.0 0.00 0.00 0.00 86 1026.0
20260509220731 14 215 0.0 0.0 0.00 0.00 0.00 86 1025.9
20260509220517 13 215 0.0 0.0 0.00 0.00 0.00 86 1026.0
20260509220418 13 215 0.0 0.0 0.00 0.00 0.00 86 1026.0
20260509220308 13 215 0.0 0.0 0.00 0.00 0.00 86 1026.0
20260509220159 13 215 0.0 0.0 0.00 0.00 0.00 87 1026.0
20260509220048 13 215 0.0 0.0 0.00 0.00 0.00 87 1026.1
20260509215938 13 215 0.0 0.0 0.00 0.00 0.00 86 1026.0
20260509215829 13 215 0.0 0.0 0.00 0.00 0.00 88 1026.1
20260509215719 13 215 0.0 1.6 0.00 0.00 0.00 88 1026.1
20260509215616 13 215 0.0 1.6 0.00 0.00 0.00 87 1026.1
20260509215514 13 215 0.0 1.6 0.00 0.00 0.00 88 1026.1
20260509215413 13 215 0.0 1.6 0.00 0.00 0.00 88 1026.1
20260509215305 13 215 0.0 1.6 0.00 0.00 0.00 90 1026.1
20260509215153 13 215 0.0 1.6 0.00 0.00 0.00 89 1026.1
20260509215049 13 215 0.0 1.6 0.00 0.00 0.00 89 1026.1
20260509214945 13 215 0.0 1.6 0.00 0.00 0.00 90 1026.1
20260509214843 13 215 0.0 1.6 0.00 0.00 0.00 90 1026.1
20260509214733 13 215 0.0 1.6 0.00 0.00 0.00 90 1026.0
20260509214623 13 215 0.0 0.0 0.00 0.00 0.00 90 1026.1
20260509214515 12 215 0.0 0.0 0.00 0.00 0.00 89 1026.0
20260509214403 12 215 0.0 0.0 0.00 0.00 0.00 89 1026.0
20260509214253 12 215 0.0 0.0 0.00 0.00 0.00 90 1025.9
20260509214143 12 215 0.0 0.0 0.00 0.00 0.00 90 1025.9
20260509214036 12 215 0.0 0.0 0.00 0.00 0.00 91 1025.9
20260509213923 12 215 0.0 0.0 0.00 0.00 0.00 91 1025.8
20260509213813 12 215 0.0 0.0 0.00 0.00 0.00 91 1025.8
20260509213703 12 215 0.0 0.0 0.00 0.00 0.00 90 1025.9
20260509213554 12 215 0.0 0.0 0.00 0.00 0.00 91 1025.8
20260509213443 12 215 0.0 0.0 0.00 0.00 0.00 91 1025.8
20260509213339 12 215 0.0 0.0 0.00 0.00 0.00 91 1025.8
20260509213240 12 215 0.0 0.0 0.00 0.00 0.00 91 1025.6
20260509213027 12 215 0.0 0.0 0.00 0.00 0.00 91 1025.6
20260509212922 12 215 0.0 0.0 0.00 0.00 0.00 92 1025.6
20260509212825 12 215 0.0 0.0 0.00 0.00 0.00 92 1025.6
20260509212715 11 215 0.0 0.0 0.00 0.00 0.00 92 1025.5
20260509212605 11 215 0.0 0.0 0.00 0.00 0.00 92 1025.6
20260509212457 11 215 0.0 0.0 0.00 0.00 0.00 92 1025.6
20260509212345 11 215 0.0 0.0 0.00 0.00 0.00 92 1025.5
20260509212235 11 215 0.0 0.0 0.00 0.00 0.00 92 1025.4
20260509212201 11 215 0.0 0.0 0.00 0.00 0.00 92 1025.5
20260509212015 11 215 0.0 0.0 0.00 0.00 0.00 92 1025.4
20260509211905 11 215 0.0 3.2 0.00 0.00 0.00 92 1025.4
20260509211801 11 215 0.0 3.2 0.00 0.00 0.00 91 1025.4
20260509211702 11 215 0.0 3.2 0.00 0.00 0.00 91 1025.3
20260509211553 11 215 0.0 3.2 0.00 0.00 0.00 92 1025.3
20260509211442 11 215 0.0 3.2 0.00 0.00 0.00 91 1025.4
20260509211333 11 215 0.0 3.2 0.00 0.00 0.00 91 1025.4
20260509211224 11 215 0.0 3.2 0.00 0.00 0.00 91 1025.3
20260509211113 11 215 0.0 3.2 0.00 0.00 0.00 91 1025.4
20260509211003 11 215 0.0 3.2 0.00 0.00 0.00 91 1025.4
20260509210855 11 215 0.0 3.2 0.00 0.00 0.00 91 1025.3
20260509210756 11 215 0.0 3.2 0.00 0.00 0.00 91 1025.4
20260509210657 11 215 0.0 3.2 0.00 0.00 0.00 91 1025.3
20260509210546 11 215 0.0 3.2 0.00 0.00 0.00 91 1025.3
20260509210437 11 215 0.0 3.2 0.00 0.00 0.00 91 1025.3
20260509210327 11 215 0.0 3.2 0.00 0.00 0.00 91 1025.2
20260509210223 11 215 0.0 3.2 0.00 0.00 0.00 91 1025.2
20260509210124 11 215 0.0 3.2 0.00 0.00 0.00 91 1025.2
20260509210018 11 215 0.0 1.6 0.00 0.00 0.00 91 1025.1
20260509205904 11 215 0.0 1.6 0.00 0.00 0.00 91 1025.2
20260509205755 11 215 0.0 1.6 0.00 0.00 0.00 91 1025.1
20260509205645 11 215 0.0 0.0 0.00 0.00 0.00 91 1025.1
20260509205535 11 215 0.0 0.0 0.00 0.00 0.00 91 1025.1
20260509205426 11 215 0.0 0.0 0.00 0.00 0.00 91 1025.1
20260509205314 11 215 0.0 1.6 0.00 0.00 0.00 91 1025.1
20260509205205 11 215 0.0 4.8 0.00 0.00 0.00 91 1025.1
20260509204954 11 215 0.0 4.8 0.00 0.00 0.00 91 1025.1
20260509204851 11 215 1.6 4.8 0.00 0.00 0.00 91 1025.0
20260509204748 11 215 1.6 4.8 0.00 0.00 0.00 91 1025.0
20260509204642 11 215 1.6 4.8 0.00 0.00 0.00 91 1025.1
20260509204543 11 215 1.6 4.8 0.00 0.00 0.00 91 1025.0
20260509204438 11 215 1.6 4.8 0.00 0.00 0.00 91 1025.0
20260509204323 11 215 1.6 4.8 0.00 0.00 0.00 91 1025.0
20260509204221 11 162 1.6 3.2 0.00 0.00 0.00 91 1025.0
20260509204117 11 162 1.6 3.2 0.00 0.00 0.00 91 1025.0
20260509204017 11 162 0.0 3.2 0.00 0.00 0.00 91 1025.0
20260509203906 11 162 1.6 3.2 0.00 0.00 0.00 91 1024.9
20260509203757 11 57 1.6 4.8 0.00 0.00 0.00 90 1024.8
20260509203648 11 57 0.0 4.8 0.00 0.00 0.00 90 1024.8
20260509203548 11 101 0.0 4.8 0.00 0.00 0.00 90 1024.8
20260509203449 11 151 0.0 4.8 0.00 0.00 0.00 90 1024.8
20260509203338 11 151 0.0 4.8 0.00 0.00 0.00 90 1024.8
20260509203227 11 151 0.0 4.8 0.00 0.00 0.00 90 1024.8
20260509203123 11 151 0.0 4.8 0.00 0.00 0.00 90 1024.8
20260509203024 11 151 0.0 4.8 0.00 0.00 0.00 90 1024.7
20260509202919 11 180 0.0 4.8 0.00 0.00 0.00 90 1024.7
20260509202805 11 192 0.0 0.0 0.00 0.00 0.00 91 1024.8
20260509202654 11 192 0.0 1.6 0.00 0.00 0.00 90 1024.8
20260509202553 11 192 0.0 3.2 0.00 0.00 0.00 91 1024.7
20260509202450 11 192 0.0 3.2 0.00 0.00 0.00 91 1024.6
20260509202352 11 192 0.0 3.2 0.00 0.00 0.00 91 1024.7
20260509202239 11 192 0.0 3.2 0.00 0.00 0.00 91 1024.8
20260509202129 11 192 0.0 3.2 0.00 0.00 0.00 91 1024.8
20260509202019 11 192 0.0 3.2 0.00 0.00 0.00 91 1024.7
20260509201908 11 192 0.0 3.2 0.00 0.00 0.00 91 1024.7
20260509201759 11 192 0.0 3.2 0.00 0.00 0.00 91 1024.7
20260509201649 11 192 0.0 3.2 0.00 0.00 0.00 91 1024.8
20260509201545 11 192 0.0 3.2 0.00 0.00 0.00 91 1024.7
20260509201450 11 192 0.0 3.2 0.00 0.00 0.00 91 1024.7
20260509201353 11 192 0.0 3.2 0.00 0.00 0.00 91 1024.6
20260509201227 11 192 0.0 3.2 0.00 0.00 0.00 91 1024.5
20260509201117 11 192 0.0 3.2 0.00 0.00 0.00 91 1024.5
20260509201007 11 112 0.0 3.2 0.00 0.00 0.00 91 1024.6
20260509200857 11 112 0.0 3.2 0.00 0.00 0.00 91 1024.5
20260509200747 11 112 0.0 3.2 0.00 0.00 0.00 91 1024.5
20260509200637 11 112 0.0 3.2 0.00 0.00 0.00 91 1024.4
20260509200527 11 85 0.0 3.2 0.00 0.00 0.00 91 1024.4
20260509200417 11 85 0.0 3.2 0.00 0.00 0.00 91 1024.4
20260509200314 11 85 0.0 3.2 0.00 0.00 0.00 91 1024.4
20260509200213 11 85 0.0 3.2 0.00 0.00 0.00 91 1024.5
20260509200111 11 85 0.0 3.2 0.00 0.00 0.00 91 1024.4
20260509200007 11 85 0.0 3.2 0.00 0.00 0.00 91 1024.3
20260509195907 11 85 0.0 3.2 0.00 0.00 0.00 91 1024.4
20260509195801 11 85 1.6 3.2 0.00 0.00 0.00 91 1024.5
20260509195646 11 85 1.6 3.2 0.00 0.00 0.00 91 1024.5
20260509195537 11 85 0.0 3.2 0.00 0.00 0.00 91 1024.4
20260509195437 11 85 0.0 3.2 0.00 0.00 0.00 91 1024.6
20260509195331 11 85 0.0 3.2 0.00 0.00 0.00 91 1024.5
20260509195235 11 211 0.0 3.2 0.00 0.00 0.00 91 1024.6
20260509195121 11 286 0.0 3.2 0.00 0.00 0.00 91 1024.5
20260509195010 11 286 1.6 3.2 0.00 0.00 0.00 91 1024.5
20260509194901 11 286 0.0 6.4 0.00 0.00 0.00 91 1024.4
20260509194751 11 219 0.0 6.4 0.00 0.00 0.00 91 1024.4
20260509194641 11 247 0.0 6.4 0.00 0.00 0.00 91 1024.4
20260509194532 11 247 0.0 6.4 0.00 0.00 0.00 91 1024.5
20260509194432 11 247 0.0 6.4 0.00 0.00 0.00 91 1024.4
20260509194331 11 247 0.0 6.4 0.00 0.00 0.00 91 1024.3
20260509194225 11 229 0.0 6.4 0.00 0.00 0.00 91 1024.3
20260509194112 11 141 0.0 6.4 0.00 0.00 0.00 91 1024.4
20260509194001 11 141 0.0 6.4 0.00 0.00 0.00 91 1024.3
20260509193856 11 146 0.0 6.4 0.00 0.00 0.00 91 1024.2
20260509193755 11 214 0.0 0.0 0.00 0.00 0.00 91 1024.2
20260509193655 11 214 0.0 0.0 0.00 0.00 0.00 91 1024.3
20260509193215 11 214 0.0 0.0 0.00 0.00 0.00 91 1024.2
20260509193101 11 214 0.0 0.0 0.00 0.00 0.00 91 1024.2
20260509192953 11 214 0.0 0.0 0.00 0.00 0.00 91 1024.2
20260509192851 11 214 0.0 1.6 0.00 0.00 0.00 90 1024.2
20260509192750 11 146 0.0 3.2 0.00 0.00 0.00 90 1024.3
20260509192638 11 146 0.0 3.2 0.00 0.00 0.00 90 1024.2
20260509192528 11 146 0.0 3.2 0.00 0.00 0.00 90 1024.2
20260509192420 11 146 0.0 3.2 0.00 0.00 0.00 90 1024.2
20260509192309 11 146 0.0 3.2 0.00 0.00 0.00 90 1024.3
20260509192208 10 146 0.0 4.8 0.00 0.00 0.00 90 1024.3
20260509192141 10 146 0.0 4.8 0.00 0.00 0.00 90 1024.1
20260509192014 10 146 1.6 4.8 0.00 0.00 0.00 90 1024.1
20260509191830 10 159 1.6 4.8 0.00 0.00 0.00 90 1024.2
20260509191719 10 159 1.6 4.8 0.00 0.00 0.00 90 1024.3
20260509191609 10 159 1.6 4.8 0.00 0.00 0.00 90 1024.2
20260509191459 10 159 1.6 4.8 0.00 0.00 0.00 90 1024.3
20260509191354 10 159 0.0 4.8 0.00 0.00 0.00 90 1024.2
20260509191325 10 159 1.6 4.8 0.00 0.00 0.00 90 1024.2
20260509191150 10 199 1.6 4.8 0.00 0.00 0.00 90 1024.2
20260509191044 10 199 0.0 4.8 0.00 0.00 0.00 90 1024.2
20260509190940 10 164 0.0 4.8 0.00 0.00 0.00 90 1024.2
20260509190841 10 233 1.6 4.8 0.00 0.00 0.00 90 1024.2
20260509190731 10 240 1.6 4.8 0.00 0.00 0.00 90 1024.2
20260509190647 10 240 1.6 4.8 0.00 0.00 0.00 90 1024.2
20260509190620 10 240 1.6 4.8 0.00 0.00 0.00 90 1024.2
20260509190425 10 240 1.6 4.8 0.00 0.00 0.00 90 1024.2
20260509190315 10 240 1.6 4.8 0.00 0.00 0.00 90 1024.3
20260509190204 10 156 1.6 4.8 0.00 0.00 0.00 90 1024.2
20260509190112 10 156 1.6 4.8 0.00 0.00 0.00 90 1024.2
20260509185947 10 91 1.6 4.8 0.00 0.00 0.00 90 1024.2
20260509185839 10 56 1.6 4.8 0.00 0.00 0.00 90 1024.1
20260509185812 10 56 0.0 3.2 0.00 0.00 0.00 90 1024.2
20260509185636 10 109 0.0 3.2 0.00 0.00 0.00 90 1024.2
20260509185536 10 109 0.0 3.2 0.00 0.00 0.00 90 1024.2
20260509185431 10 109 0.0 3.2 0.00 0.00 0.00 90 1024.1
20260509185336 10 90 0.0 3.2 0.00 0.00 0.00 90 1024.2
20260509185220 10 309 0.0 3.2 0.00 0.00 0.00 90 1024.1
20260509185135 10 309 0.0 3.2 0.00 0.00 0.00 90 1024.1
20260509185107 10 309 0.0 3.2 0.00 0.00 0.00 89 1024.1
20260509184854 10 309 0.0 3.2 0.00 0.00 0.00 90 1024.0
20260509184745 10 309 0.0 3.2 0.00 0.00 0.00 90 1024.1
20260509184637 10 309 0.0 3.2 0.00 0.00 0.00 90 1024.1
20260509184532 10 309 0.0 3.2 0.00 0.00 0.00 90 1024.0
20260509184420 10 309 0.0 3.2 0.00 0.00 0.00 90 1024.1
20260509184313 10 309 0.0 3.2 0.00 0.00 0.00 90 1024.1
20260509184210 10 309 0.0 1.6 0.00 0.00 0.00 89 1024.1
20260509184110 10 309 0.0 0.0 0.00 0.00 0.00 89 1024.1
20260509184002 10 309 0.0 0.0 0.00 0.00 0.00 89 1024.0
20260509183851 10 309 0.0 3.2 0.00 0.00 0.00 89 1024.1
20260509183742 10 309 0.0 3.2 0.00 0.00 0.00 89 1024.1
20260509183634 10 309 0.0 3.2 0.00 0.00 0.00 89 1024.1
20260509183529 10 309 0.0 3.2 0.00 0.00 0.00 89 1024.1
20260509183418 10 309 0.0 3.2 0.00 0.00 0.00 89 1024.1
20260509183315 10 309 0.0 3.2 0.00 0.00 0.00 89 1024.1
20260509183213 10 309 0.0 3.2 0.00 0.00 0.00 89 1024.1
20260509183110 10 309 0.0 3.2 0.00 0.00 0.00 89 1024.0
20260509183016 10 309 0.0 3.2 0.00 0.00 0.00 89 1024.0
20260509182911 10 309 0.0 1.6 0.00 0.00 0.00 89 1024.0
20260509182810 10 309 0.0 0.0 0.00 0.00 0.00 89 1024.0
20260509182709 10 309 0.0 0.0 0.00 0.00 0.00 89 1024.1
20260509182609 10 309 0.0 0.0 0.00 0.00 0.00 89 1024.0
20260509182523 10 309 0.0 0.0 0.00 0.00 0.00 89 1024.0
20260509182405 10 309 0.0 0.0 0.00 0.00 0.00 89 1024.0
20260509182301 10 309 0.0 0.0 0.00 0.00 0.00 89 1024.0
20260509182154 10 309 0.0 0.0 0.00 0.00 0.00 89 1024.0
20260509182045 10 309 0.0 0.0 0.00 0.00 0.00 89 1024.0
20260509181828 10 309 0.0 0.0 0.00 0.00 0.00 89 1024.0
20260509181721 10 309 0.0 0.0 0.00 0.00 0.00 89 1024.0
20260509181611 10 309 0.0 0.0 0.00 0.00 0.00 89 1024.0
20260509181507 10 309 0.0 0.0 0.00 0.00 0.00 89 1024.1
20260509181357 10 309 0.0 0.0 0.00 0.00 0.00 89 1024.1
20260509181251 10 309 0.0 0.0 0.00 0.00 0.00 89 1024.0
20260509181151 10 309 0.0 0.0 0.00 0.00 0.00 89 1024.1
20260509181049 10 309 0.0 0.0 0.00 0.00 0.00 89 1024.1
20260509180939 10 309 0.0 0.0 0.00 0.00 0.00 89 1024.0
20260509180829 10 309 0.0 1.6 0.00 0.00 0.00 89 1024.0
20260509180720 10 309 0.0 1.6 0.00 0.00 0.00 89 1024.0
20260509180618 10 309 0.0 1.6 0.00 0.00 0.00 89 1024.1
20260509180551 10 309 0.0 1.6 0.00 0.00 0.00 89 1024.1
20260509180419 10 309 0.0 1.6 0.00 0.00 0.00 89 1024.1
20260509180317 10 309 0.0 1.6 0.00 0.00 0.00 89 1024.0
20260509180213 10 309 0.0 1.6 0.00 0.00 0.00 89 1024.1
20260509180112 10 309 0.0 1.6 0.00 0.00 0.00 89 1024.1
20260509180007 10 309 0.0 1.6 0.00 0.00 0.00 89 1024.0
20260509175901 10 309 0.0 1.6 0.00 0.00 0.00 89 1024.0
20260509175759 10 309 0.0 0.0 0.00 0.00 0.00 89 1023.9
20260509175659 10 309 0.0 0.0 0.00 0.00 0.00 89 1023.8
20260509175557 10 309 0.0 0.0 0.00 0.00 0.00 89 1023.8
20260509175501 10 309 0.0 0.0 0.00 0.00 0.00 89 1023.9
20260509175354 10 309 0.0 0.0 0.00 0.00 0.00 89 1023.9
20260509175252 10 309 0.0 0.0 0.00 0.00 0.00 89 1023.9
20260509175149 10 309 0.0 0.0 0.00 0.00 0.00 89 1024.0
20260509175041 10 309 0.0 0.0 0.00 0.00 0.00 89 1023.9
20260509174823 10 309 0.0 0.0 0.00 0.00 0.00 89 1023.9
20260509174714 10 309 0.0 0.0 0.00 0.00 0.00 89 1023.9
20260509174605 10 309 0.0 0.0 0.00 0.00 0.00 89 1023.9
20260509174457 10 309 0.0 0.0 0.00 0.00 0.00 89 1023.9
20260509174356 10 309 0.0 0.0 0.00 0.00 0.00 89 1023.9
20260509174154 10 309 0.0 0.0 0.00 0.00 0.00 89 1023.9
20260509174050 10 309 0.0 0.0 0.00 0.00 0.00 89 1024.0
20260509173952 10 309 0.0 1.6 0.00 0.00 0.00 89 1023.9
20260509173842 10 309 0.0 1.6 0.00 0.00 0.00 89 1023.9
20260509173732 10 309 0.0 1.6 0.00 0.00 0.00 89 1023.9
20260509173622 10 309 0.0 1.6 0.00 0.00 0.00 89 1023.9
20260509173512 10 309 0.0 1.6 0.00 0.00 0.00 89 1023.8
20260509173304 10 309 0.0 1.6 0.00 0.00 0.00 89 1023.8
20260509173149 10 309 0.0 1.6 0.00 0.00 0.00 89 1023.8
20260509173046 10 309 0.0 1.6 0.00 0.00 0.00 89 1023.6
20260509172944 10 309 0.0 1.6 0.00 0.00 0.00 89 1023.6
20260509172845 10 309 0.0 1.6 0.00 0.00 0.00 89 1023.5
20260509172734 10 309 0.0 1.6 0.00 0.00 0.00 89 1023.6
20260509172626 10 309 0.0 1.6 0.00 0.00 0.00 89 1023.6
20260509172522 11 309 0.0 1.6 0.00 0.00 0.00 89 1023.5
20260509172424 11 309 0.0 1.6 0.00 0.00 0.00 89 1023.6
20260509172314 11 309 0.0 1.6 0.00 0.00 0.00 89 1023.7
20260509172208 11 309 0.0 1.6 0.00 0.00 0.00 89 1023.6
20260509172057 11 309 0.0 0.0 0.00 0.00 0.00 89 1023.7
20260509172013 11 309 0.0 0.0 0.00 0.00 0.00 89 1023.6
20260509171948 11 309 0.0 0.0 0.00 0.00 0.00 89 1023.5
20260509171730 11 309 0.0 0.0 0.00 0.00 0.00 89 1023.5
20260509171622 11 309 0.0 0.0 0.00 0.00 0.00 89 1023.6
20260509171512 11 309 0.0 0.0 0.00 0.00 0.00 89 1023.7
20260509171402 11 309 0.0 0.0 0.00 0.00 0.00 89 1023.7
20260509171252 11 309 0.0 0.0 0.00 0.00 0.00 89 1023.6
20260509171142 11 309 0.0 0.0 0.00 0.00 0.00 89 1023.6
20260509171032 11 309 0.0 0.0 0.00 0.00 0.00 89 1023.7
20260509170928 11 309 0.0 0.0 0.00 0.00 0.00 89 1023.7
20260509170834 11 309 0.0 0.0 0.00 0.00 0.00 89 1023.7
20260509170720 11 309 0.0 0.0 0.00 0.00 0.00 89 1023.6
20260509170618 11 309 0.0 0.0 0.00 0.00 0.00 89 1023.6
20260509170517 11 309 0.0 0.0 0.00 0.00 0.00 89 1023.6
20260509170443 11 309 0.0 0.0 0.00 0.00 0.00 89 1023.7
20260509170312 11 309 0.0 0.0 0.00 0.00 0.00 89 1023.7
20260509170210 11 309 0.0 0.0 0.00 0.00 0.00 89 1023.6
20260509170108 11 309 0.0 0.0 0.00 0.00 0.00 89 1023.6
20260509165958 11 309 0.0 0.0 0.00 0.00 0.00 89 1023.6
20260509165848 11 309 0.0 1.6 0.00 0.00 0.00 89 1023.6
20260509165741 11 309 0.0 1.6 0.00 0.00 0.00 89 1023.6
20260509165627 11 309 0.0 1.6 0.00 0.00 0.00 89 1023.6
20260509165519 11 309 0.0 1.6 0.00 0.00 0.00 89 1023.7
20260509165414 11 309 0.0 1.6 0.00 0.00 0.00 89 1023.7
20260509165316 11 309 0.0 1.6 0.00 0.00 0.00 89 1023.6
20260509165206 11 309 0.0 1.6 0.00 0.00 0.00 89 1023.6
20260509165056 11 309 0.0 1.6 0.00 0.00 0.00 89 1023.6
20260509164945 11 309 0.0 1.6 0.00 0.00 0.00 89 1023.7
20260509164734 11 309 0.0 0.0 0.00 0.00 0.00 89 1023.6
20260509164630 11 309 0.0 0.0 0.00 0.00 0.00 89 1023.6
20260509164531 11 309 0.0 0.0 0.00 0.00 0.00 89 1023.6
20260509164420 11 309 0.0 0.0 0.00 0.00 0.00 89 1023.6
20260509164311 11 309 0.0 0.0 0.00 0.00 0.00 89 1023.7
20260509164208 11 309 0.0 0.0 0.00 0.00 0.00 89 1023.7
20260509164105 11 309 0.0 0.0 0.00 0.00 0.00 89 1023.6
20260509164004 11 309 0.0 0.0 0.00 0.00 0.00 89 1023.7
20260509163859 11 309 0.0 0.0 0.00 0.00 0.00 89 1023.6
20260509163759 11 309 0.0 0.0 0.00 0.00 0.00 89 1023.6
20260509163653 11 309 0.0 0.0 0.00 0.00 0.00 89 1023.6
20260509163540 11 309 0.0 0.0 0.00 0.00 0.00 89 1023.6
20260509163430 11 309 0.0 0.0 0.00 0.00 0.00 89 1023.7
20260509163321 11 309 0.0 0.0 0.00 0.00 0.00 89 1023.7
20260509163216 11 309 0.0 0.0 0.00 0.00 0.00 89 1023.7
20260509163100 11 309 0.0 0.0 0.00 0.00 0.00 89 1023.7
20260509162949 11 309 0.0 1.6 0.00 0.00 0.00 89 1023.8
20260509162840 11 309 0.0 3.2 0.00 0.00 0.00 89 1023.7
20260509162730 11 309 0.0 3.2 0.00 0.00 0.00 89 1023.7
20260509162628 11 309 0.0 3.2 0.00 0.00 0.00 89 1023.8
20260509162510 11 309 1.6 3.2 0.00 0.00 0.00 89 1023.8
20260509162400 11 309 1.6 3.2 0.00 0.00 0.00 89 1023.7
20260509162256 11 309 1.6 3.2 0.00 0.00 0.00 89 1023.8
20260509162159 11 309 1.6 3.2 0.00 0.00 0.00 89 1023.8
20260509162048 11 309 0.0 3.2 0.00 0.00 0.00 89 1023.8
20260509161938 11 309 0.0 3.2 0.00 0.00 0.00 89 1023.8
20260509161718 11 309 0.0 3.2 0.00 0.00 0.00 89 1023.8
20260509161617 11 309 0.0 3.2 0.00 0.00 0.00 89 1023.8
20260509161458 11 309 0.0 3.2 0.00 0.00 0.00 89 1023.7
20260509161348 11 309 0.0 3.2 0.00 0.00 0.00 89 1023.8
20260509161239 11 309 0.0 3.2 0.00 0.00 0.00 89 1023.9
20260509161136 11 309 0.0 3.2 0.00 0.00 0.00 89 1023.7
20260509161033 11 309 0.0 3.2 0.00 0.00 0.00 89 1023.8
20260509160932 11 309 0.0 3.2 0.00 0.00 0.00 89 1023.8
20260509160830 11 309 0.0 3.2 0.00 0.00 0.00 89 1023.8
20260509160726 11 309 0.0 3.2 0.00 0.00 0.00 89 1023.8
20260509160626 11 309 0.0 3.2 0.00 0.00 0.00 88 1023.8
20260509160525 11 13 0.0 3.2 0.00 0.00 0.00 88 1023.8
20260509160425 11 13 0.0 3.2 0.00 0.00 0.00 88 1023.8
20260509160200 11 13 0.0 3.2 0.00 0.00 0.00 88 1023.8
20260509160105 11 13 0.0 3.2 0.00 0.00 0.00 88 1023.8
20260509155940 11 13 0.0 3.2 0.00 0.00 0.00 88 1023.8
20260509155829 11 13 0.0 1.6 0.00 0.00 0.00 88 1023.8
20260509155720 11 255 0.0 0.0 0.00 0.00 0.00 88 1023.8
20260509155610 11 255 0.0 0.0 0.00 0.00 0.00 88 1023.9
20260509155459 11 255 0.0 0.0 0.00 0.00 0.00 88 1023.9
20260509155355 11 255 0.0 0.0 0.00 0.00 0.00 88 1024.0
20260509155254 11 255 0.0 0.0 0.00 0.00 0.00 88 1024.0
20260509155154 11 255 0.0 0.0 0.00 0.00 0.00 88 1023.8
20260509155043 11 255 0.0 0.0 0.00 0.00 0.00 88 1024.0
20260509154935 11 255 0.0 0.0 0.00 0.00 0.00 88 1023.9
20260509154733 11 255 0.0 0.0 0.00 0.00 0.00 88 1024.0
20260509154621 11 255 0.0 0.0 0.00 0.00 0.00 88 1024.0
20260509154519 11 255 0.0 0.0 0.00 0.00 0.00 88 1024.0
20260509154417 11 255 0.0 0.0 0.00 0.00 0.00 88 1024.1
20260509154316 11 255 0.0 0.0 0.00 0.00 0.00 88 1024.1
20260509154208 11 255 0.0 0.0 0.00 0.00 0.00 88 1024.1
20260509154058 11 255 0.0 0.0 0.00 0.00 0.00 88 1024.1
20260509153950 11 255 0.0 0.0 0.00 0.00 0.00 88 1024.1
20260509153836 11 255 0.0 0.0 0.00 0.00 0.00 88 1024.1
20260509153726 11 255 0.0 0.0 0.00 0.00 0.00 88 1024.0
20260509153623 11 255 0.0 0.0 0.00 0.00 0.00 88 1024.0
20260509153524 11 255 0.0 0.0 0.00 0.00 0.00 88 1024.0
20260509153413 11 255 0.0 0.0 0.00 0.00 0.00 87 1024.2
20260509153156 11 255 0.0 0.0 0.00 0.00 0.00 87 1024.0
20260509153046 11 255 0.0 0.0 0.00 0.00 0.00 87 1024.0
20260509152938 11 255 0.0 0.0 0.00 0.00 0.00 87 1024.0
20260509152825 11 255 0.0 0.0 0.00 0.00 0.00 87 1024.1
20260509152713 11 255 0.0 0.0 0.00 0.00 0.00 87 1024.1
20260509152604 11 255 0.0 0.0 0.00 0.00 0.00 87 1024.1
20260509152453 11 255 0.0 0.0 0.00 0.00 0.00 87 1024.1
20260509152345 11 255 0.0 0.0 0.00 0.00 0.00 87 1024.1
20260509152233 11 255 0.0 0.0 0.00 0.00 0.00 87 1024.1
20260509152124 11 255 0.0 0.0 0.00 0.00 0.00 87 1024.1
20260509152022 11 255 0.0 0.0 0.00 0.00 0.00 87 1024.1
20260509151926 11 255 0.0 0.0 0.00 0.00 0.00 87 1024.1
20260509151812 11 255 0.0 0.0 0.00 0.00 0.00 87 1024.1
20260509151709 11 255 0.0 0.0 0.00 0.00 0.00 87 1024.1
20260509151607 11 255 0.0 0.0 0.00 0.00 0.00 87 1024.0
20260509151506 11 255 0.0 0.0 0.00 0.00 0.00 87 1024.0
20260509151356 11 255 0.0 0.0 0.00 0.00 0.00 87 1024.1
20260509151245 11 255 0.0 0.0 0.00 0.00 0.00 87 1024.1
20260509151138 11 255 0.0 0.0 0.00 0.00 0.00 87 1024.1
20260509151055 11 255 0.0 0.0 0.00 0.00 0.00 87 1024.1
20260509150920 11 255 0.0 0.0 0.00 0.00 0.00 87 1024.1
20260509150807 11 255 0.0 0.0 0.00 0.00 0.00 87 1024.1
20260509150704 11 255 0.0 0.0 0.00 0.00 0.00 87 1024.1
20260509150600 11 255 0.0 0.0 0.00 0.00 0.00 87 1024.2
20260509150501 11 255 0.0 0.0 0.00 0.00 0.00 87 1024.1
20260509150403 11 255 0.0 0.0 0.00 0.00 0.00 87 1024.1
20260509150340 11 255 0.0 0.0 0.00 0.00 0.00 87 1024.0
20260509150125 11 255 0.0 0.0 0.00 0.00 0.00 87 1024.1
20260509150019 11 255 0.0 0.0 0.00 0.00 0.00 87 1024.1
20260509145918 11 255 0.0 0.0 0.00 0.00 0.00 87 1024.1
20260509145819 11 255 0.0 0.0 0.00 0.00 0.00 87 1024.1
20260509145707 11 255 0.0 0.0 0.00 0.00 0.00 87 1024.1
20260509145557 11 255 0.0 0.0 0.00 0.00 0.00 87 1024.1
20260509145448 11 255 0.0 0.0 0.00 0.00 0.00 87 1024.1
20260509145338 11 255 0.0 0.0 0.00 0.00 0.00 87 1024.2
20260509145228 11 255 0.0 0.0 0.00 0.00 0.00 87 1024.1
20260509145123 11 255 0.0 0.0 0.00 0.00 0.00 87 1024.1
20260509145010 11 255 0.0 0.0 0.00 0.00 0.00 87 1024.1
20260509144906 11 255 0.0 0.0 0.00 0.00 0.00 87 1024.1
20260509144806 11 255 0.0 0.0 0.00 0.00 0.00 87 1024.1
20260509144655 11 255 0.0 0.0 0.00 0.00 0.00 87 1024.1
20260509144546 11 255 0.0 0.0 0.00 0.00 0.00 87 1024.1
20260509144437 11 255 0.0 0.0 0.00 0.00 0.00 87 1024.1
20260509144326 11 255 0.0 0.0 0.00 0.00 0.00 87 1024.1
20260509144215 11 255 0.0 0.0 0.00 0.00 0.00 87 1024.2
20260509144113 11 255 0.0 0.0 0.00 0.00 0.00 87 1024.2
20260509144012 11 255 0.0 0.0 0.00 0.00 0.00 87 1024.2
20260509143910 11 255 0.0 1.6 0.00 0.00 0.00 87 1024.2
20260509143807 11 255 0.0 3.2 0.00 0.00 0.00 87 1024.2
20260509143705 11 255 0.0 3.2 0.00 0.00 0.00 87 1024.2
20260509143604 11 255 0.0 3.2 0.00 0.00 0.00 86 1024.2
20260509143501 11 255 0.0 3.2 0.00 0.00 0.00 86 1024.1
20260509143358 11 255 0.0 3.2 0.00 0.00 0.00 86 1024.1
20260509143259 11 255 0.0 3.2 0.00 0.00 0.00 87 1024.2
20260509143155 11 255 0.0 3.2 0.00 0.00 0.00 86 1024.2
20260509143055 11 255 0.0 3.2 0.00 0.00 0.00 87 1024.2
20260509142954 11 255 0.0 3.2 0.00 0.00 0.00 87 1024.2
20260509142844 11 255 0.0 3.2 0.00 0.00 0.00 86 1024.2
20260509142736 11 255 0.0 1.6 0.00 0.00 0.00 86 1024.2
20260509142637 11 255 0.0 0.0 0.00 0.00 0.00 86 1024.2
20260509142526 11 255 0.0 0.0 0.00 0.00 0.00 86 1024.2
20260509142416 11 255 0.0 0.0 0.00 0.00 0.00 86 1024.2
20260509142310 11 255 0.0 0.0 0.00 0.00 0.00 86 1024.2
20260509142155 11 255 0.0 0.0 0.00 0.00 0.00 86 1024.3
20260509142054 11 255 0.0 0.0 0.00 0.00 0.00 86 1024.3
20260509141950 11 255 0.0 0.0 0.00 0.00 0.00 86 1024.2
20260509141849 11 255 0.0 0.0 0.00 0.00 0.00 86 1024.3
20260509141748 11 255 0.0 0.0 0.00 0.00 0.00 86 1024.3
20260509141646 11 255 0.0 0.0 0.00 0.00 0.00 86 1024.2
20260509141536 11 255 0.0 0.0 0.00 0.00 0.00 86 1024.2
20260509141426 11 255 0.0 0.0 0.00 0.00 0.00 86 1024.2
20260509141315 11 255 0.0 0.0 0.00 0.00 0.00 86 1024.2
20260509141214 11 255 0.0 0.0 0.00 0.00 0.00 86 1024.2
20260509141112 11 255 0.0 0.0 0.00 0.00 0.00 86 1024.2
20260509141010 11 255 0.0 0.0 0.00 0.00 0.00 86 1024.2
20260509140900 11 255 0.0 0.0 0.00 0.00 0.00 86 1024.3
20260509140750 11 255 0.0 0.0 0.00 0.00 0.00 86 1024.2
20260509140639 11 255 0.0 0.0 0.00 0.00 0.00 86 1024.3
20260509140530 11 255 0.0 0.0 0.00 0.00 0.00 86 1024.3
20260509140420 11 255 0.0 0.0 0.00 0.00 0.00 86 1024.3
20260509140310 11 255 0.0 0.0 0.00 0.00 0.00 86 1024.3
20260509140213 11 255 0.0 0.0 0.00 0.00 0.00 86 1024.3
20260509140108 11 255 0.0 0.0 0.00 0.00 0.00 86 1024.4
20260509140002 11 255 0.0 0.0 0.00 0.00 0.00 86 1024.3
20260509135853 11 255 0.0 0.0 0.00 0.00 0.00 86 1024.3
20260509135749 11 255 0.0 0.0 0.00 0.00 0.00 86 1024.3
20260509135648 11 255 0.0 0.0 0.00 0.00 0.00 86 1024.3
20260509135546 11 255 0.0 0.0 0.00 0.00 0.00 86 1024.4
20260509135437 11 255 0.0 0.0 0.00 0.00 0.00 86 1024.4
20260509135326 11 255 0.0 0.0 0.00 0.00 0.00 86 1024.3
20260509135217 11 255 0.0 0.0 0.00 0.00 0.00 86 1024.4
20260509135111 11 255 0.0 1.6 0.00 0.00 0.00 86 1024.4
20260509134956 11 255 0.0 1.6 0.00 0.00 0.00 86 1024.5
20260509134845 11 255 0.0 3.2 0.00 0.00 0.00 86 1024.4
20260509134737 11 255 0.0 3.2 0.00 0.00 0.00 86 1024.4
20260509134607 11 255 0.0 3.2 0.00 0.00 0.00 86 1024.5
20260509134508 11 255 0.0 3.2 0.00 0.00 0.00 86 1024.5
20260509134358 11 255 0.0 3.2 0.00 0.00 0.00 86 1024.3
20260509134247 11 255 0.0 3.2 0.00 0.00 0.00 86 1024.3
20260509134138 11 255 0.0 3.2 0.00 0.00 0.00 85 1024.3
20260509134039 11 255 0.0 3.2 0.00 0.00 0.00 85 1024.2
20260509133919 11 255 0.0 3.2 0.00 0.00 0.00 85 1024.3
20260509133816 11 255 0.0 3.2 0.00 0.00 0.00 85 1024.3
20260509133712 11 255 0.0 3.2 0.00 0.00 0.00 85 1024.2
20260509133612 11 255 0.0 3.2 0.00 0.00 0.00 85 1024.2
20260509133508 11 255 0.0 3.2 0.00 0.00 0.00 85 1024.3
20260509133351 11 255 0.0 3.2 0.00 0.00 0.00 85 1024.3
20260509133243 11 255 0.0 3.2 0.00 0.00 0.00 85 1024.3
20260509132929 11 255 0.0 3.2 0.00 0.00 0.00 85 1024.2
20260509132819 11 255 0.0 3.2 0.00 0.00 0.00 85 1024.2
20260509132718 11 255 0.0 3.2 0.00 0.00 0.00 85 1024.2
20260509132614 11 255 0.0 3.2 0.00 0.00 0.00 85 1024.2
20260509132519 12 255 0.0 0.0 0.00 0.00 0.00 85 1024.2
20260509132403 12 255 0.0 0.0 0.00 0.00 0.00 85 1024.2
20260509132253 12 255 0.0 0.0 0.00 0.00 0.00 85 1024.2
20260509132152 12 255 0.0 0.0 0.00 0.00 0.00 85 1024.2
20260509132050 12 255 0.0 0.0 0.00 0.00 0.00 85 1024.3
20260509131954 12 255 0.0 0.0 0.00 0.00 0.00 85 1024.7
20260509131838 12 255 0.0 0.0 0.00 0.00 0.00 85 1024.1
20260509131735 12 255 0.0 0.0 0.00 0.00 0.00 85 1024.2
20260509131634 12 255 0.0 0.0 0.00 0.00 0.00 85 1024.2
20260509131532 12 255 0.0 0.0 0.00 0.00 0.00 85 1024.3
20260509131429 12 255 0.0 0.0 0.00 0.00 0.00 85 1024.2
20260509131327 12 255 0.0 0.0 0.00 0.00 0.00 85 1024.4
20260509131218 12 255 0.0 0.0 0.00 0.00 0.00 84 1024.3
20260509131107 12 255 0.0 0.0 0.00 0.00 0.00 84 1024.3
20260509130958 12 255 0.0 0.0 0.00 0.00 0.00 84 1024.3
20260509130849 12 255 0.0 0.0 0.00 0.00 0.00 84 1024.3
20260509130738 12 255 0.0 0.0 0.00 0.00 0.00 84 1024.3
20260509130628 12 255 0.0 0.0 0.00 0.00 0.00 84 1024.3
20260509130518 12 255 0.0 0.0 0.00 0.00 0.00 84 1024.3
20260509130423 12 255 0.0 0.0 0.00 0.00 0.00 84 1024.2
20260509130258 12 255 0.0 0.0 0.00 0.00 0.00 84 1024.3
20260509130220 12 255 0.0 0.0 0.00 0.00 0.00 84 1024.3
20260509130159 12 255 0.0 0.0 0.00 0.00 0.00 84 1024.3
20260509125953 12 255 0.0 0.0 0.00 0.00 0.00 84 1024.3
20260509125851 12 255 0.0 0.0 0.00 0.00 0.00 84 1024.3
20260509125747 12 255 0.0 0.0 0.00 0.00 0.00 84 1024.2
20260509125638 12 255 0.0 0.0 0.00 0.00 0.00 84 1024.2
20260509125528 12 255 0.0 0.0 0.00 0.00 0.00 84 1024.2
20260509125418 12 255 0.0 0.0 0.00 0.00 0.00 84 1024.2
20260509125308 12 255 0.0 0.0 0.00 0.00 0.00 84 1024.2
20260509125157 12 255 0.0 0.0 0.00 0.00 0.00 84 1024.3
20260509125048 12 255 0.0 0.0 0.00 0.00 0.00 84 1024.2
20260509124946 12 255 0.0 0.0 0.00 0.00 0.00 83 1024.2
20260509124844 12 255 0.0 0.0 0.00 0.00 0.00 83 1024.2
20260509124742 12 255 0.0 0.0 0.00 0.00 0.00 83 1024.3
20260509124635 12 255 0.0 0.0 0.00 0.00 0.00 83 1024.2
20260509124522 12 255 0.0 0.0 0.00 0.00 0.00 83 1024.2
20260509124413 12 255 0.0 0.0 0.00 0.00 0.00 83 1024.2
20260509124314 12 255 0.0 0.0 0.00 0.00 0.00 83 1024.2
20260509124212 12 255 0.0 0.0 0.00 0.00 0.00 83 1024.2
20260509124111 12 255 0.0 0.0 0.00 0.00 0.00 83 1024.2
20260509124010 12 255 0.0 0.0 0.00 0.00 0.00 83 1024.3
20260509123900 12 255 0.0 0.0 0.00 0.00 0.00 83 1024.3
20260509123750 12 255 0.0 0.0 0.00 0.00 0.00 83 1024.3
20260509123639 12 255 0.0 0.0 0.00 0.00 0.00 83 1024.3
20260509123530 12 255 0.0 0.0 0.00 0.00 0.00 83 1024.4
20260509123419 12 255 0.0 0.0 0.00 0.00 0.00 83 1024.4
20260509123309 12 255 0.0 0.0 0.00 0.00 0.00 83 1024.4
20260509123208 12 255 0.0 0.0 0.00 0.00 0.00 83 1024.4
20260509123104 12 255 0.0 0.0 0.00 0.00 0.00 83 1024.3
20260509123005 12 255 0.0 0.0 0.00 0.00 0.00 83 1024.5
20260509122854 12 255 0.0 0.0 0.00 0.00 0.00 83 1024.3
20260509122750 12 255 0.0 0.0 0.00 0.00 0.00 83 1024.4
20260509122651 12 255 0.0 0.0 0.00 0.00 0.00 83 1024.3
20260509122542 12 255 0.0 0.0 0.00 0.00 0.00 83 1024.4
20260509122431 12 255 0.0 0.0 0.00 0.00 0.00 83 1024.5
20260509122325 12 255 0.0 0.0 0.00 0.00 0.00 83 1024.3
20260509122212 12 255 0.0 0.0 0.00 0.00 0.00 83 1024.3
20260509122102 12 255 0.0 0.0 0.00 0.00 0.00 82 1024.3
20260509122000 12 255 0.0 0.0 0.00 0.00 0.00 82 1024.3
20260509121856 12 255 0.0 0.0 0.00 0.00 0.00 82 1024.3
20260509121801 12 255 0.0 0.0 0.00 0.00 0.00 82 1024.3
20260509121646 12 255 0.0 0.0 0.00 0.00 0.00 82 1024.4
20260509121425 12 255 0.0 0.0 0.00 0.00 0.00 82 1024.5
20260509121316 12 255 0.0 0.0 0.00 0.00 0.00 82 1024.3
20260509121211 13 255 0.0 0.0 0.00 0.00 0.00 82 1024.3
20260509121114 12 255 0.0 0.0 0.00 0.00 0.00 82 1024.4
20260509120854 13 255 0.0 0.0 0.00 0.00 0.00 82 1024.4
20260509120751 13 255 0.0 0.0 0.00 0.00 0.00 82 1024.4
20260509120648 13 255 0.0 0.0 0.00 0.00 0.00 82 1024.4
20260509120548 13 255 0.0 0.0 0.00 0.00 0.00 82 1024.5
20260509120438 13 255 0.0 0.0 0.00 0.00 0.00 82 1024.4
20260509120327 13 255 0.0 0.0 0.00 0.00 0.00 82 1024.5
20260509120217 13 255 0.0 0.0 0.00 0.00 0.00 82 1024.4
20260509120108 13 255 0.0 0.0 0.00 0.00 0.00 82 1024.3
20260509115958 13 255 0.0 0.0 0.00 0.00 0.00 82 1024.4
20260509115856 13 255 0.0 0.0 0.00 0.00 0.00 82 1024.4
20260509115752 13 255 0.0 1.6 0.00 0.00 0.00 82 1024.4
20260509115654 13 255 0.0 1.6 0.00 0.00 0.00 82 1024.4
20260509115543 13 255 0.0 1.6 0.00 0.00 0.00 82 1024.5
20260509115440 13 255 0.0 1.6 0.00 0.00 0.00 82 1024.5
20260509115340 13 255 0.0 1.6 0.00 0.00 0.00 82 1024.3
20260509115234 13 255 0.0 1.6 0.00 0.00 0.00 82 1024.4
20260509115120 13 255 0.0 1.6 0.00 0.00 0.00 82 1024.5
20260509115009 13 255 0.0 1.6 0.00 0.00 0.00 82 1024.5
20260509114902 13 255 0.0 1.6 0.00 0.00 0.00 82 1024.5
20260509114750 13 255 0.0 0.0 0.00 0.00 0.00 82 1024.5
20260509114640 13 255 0.0 0.0 0.00 0.00 0.00 82 1024.5
20260509114536 13 255 0.0 0.0 0.00 0.00 0.00 82 1024.5
20260509114433 13 255 0.0 0.0 0.00 0.00 0.00 82 1024.6
20260509114334 13 255 0.0 0.0 0.00 0.00 0.00 82 1024.5
20260509114231 13 255 0.0 0.0 0.00 0.00 0.00 81 1024.6
20260509114128 13 255 0.0 0.0 0.00 0.00 0.00 81 1024.6
20260509114027 13 255 0.0 0.0 0.00 0.00 0.00 81 1024.5
20260509113907 13 255 0.0 0.0 0.00 0.00 0.00 81 1024.6
20260509113832 13 255 0.0 0.0 0.00 0.00 0.00 81 1024.5
20260509113648 13 255 0.0 0.0 0.00 0.00 0.00 81 1024.6
20260509113538 13 255 0.0 0.0 0.00 0.00 0.00 81 1024.5
20260509113428 13 255 0.0 0.0 0.00 0.00 0.00 81 1024.6
20260509113318 13 255 0.0 0.0 0.00 0.00 0.00 81 1024.6
20260509113212 13 255 0.0 0.0 0.00 0.00 0.00 81 1024.6
20260509113134 13 255 0.0 0.0 0.00 0.00 0.00 81 1024.6
20260509112948 13 255 0.0 0.0 0.00 0.00 0.00 81 1024.5
20260509112839 13 255 0.0 0.0 0.00 0.00 0.00 81 1024.6
20260509112728 13 255 0.0 0.0 0.00 0.00 0.00 81 1024.6
20260509112618 13 255 0.0 0.0 0.00 0.00 0.00 81 1024.6
20260509112514 13 255 0.0 0.0 0.00 0.00 0.00 81 1024.6
20260509112415 13 255 0.0 0.0 0.00 0.00 0.00 81 1024.5
20260509112334 13 255 0.0 0.0 0.00 0.00 0.00 81 1024.6
20260509112200 13 255 0.0 0.0 0.00 0.00 0.00 81 1024.6
20260509112045 13 255 0.0 0.0 0.00 0.00 0.00 81 1024.5
20260509111935 13 255 0.0 0.0 0.00 0.00 0.00 80 1024.5
20260509111828 13 255 0.0 0.0 0.00 0.00 0.00 80 1024.6
20260509111716 13 255 0.0 0.0 0.00 0.00 0.00 80 1024.5
20260509111635 13 255 0.0 0.0 0.00 0.00 0.00 80 1024.6
20260509111456 13 255 0.0 0.0 0.00 0.00 0.00 80 1024.5
20260509111346 13 255 0.0 0.0 0.00 0.00 0.00 80 1024.5
20260509111235 13 255 0.0 0.0 0.00 0.00 0.00 80 1024.5
20260509111126 13 255 0.0 0.0 0.00 0.00 0.00 80 1024.5
20260509111016 13 255 0.0 0.0 0.00 0.00 0.00 80 1024.5
20260509110914 13 255 0.0 0.0 0.00 0.00 0.00 80 1024.5
20260509110814 13 255 0.0 0.0 0.00 0.00 0.00 80 1024.5
20260509110704 13 255 0.0 0.0 0.00 0.00 0.00 80 1024.5
20260509110554 13 255 0.0 0.0 0.00 0.00 0.00 80 1024.6
20260509110444 13 255 0.0 0.0 0.00 0.00 0.00 80 1024.6
20260509110334 14 255 0.0 0.0 0.00 0.00 0.00 80 1024.5
20260509110224 14 255 0.0 0.0 0.00 0.00 0.00 80 1024.3
20260509110114 14 255 0.0 0.0 0.00 0.00 0.00 80 1024.4
20260509110012 14 255 0.0 0.0 0.00 0.00 0.00 80 1024.4
20260509105908 14 255 0.0 1.6 0.00 0.00 0.00 80 1024.4
20260509105808 14 255 0.0 1.6 0.00 0.00 0.00 80 1024.4
20260509105659 14 255 0.0 1.6 0.00 0.00 0.00 80 1024.5
20260509105548 14 255 0.0 1.6 0.00 0.00 0.00 80 1024.4
20260509105437 14 255 0.0 1.6 0.00 0.00 0.00 79 1024.4
20260509105335 14 255 0.0 1.6 0.00 0.00 0.00 79 1024.3
20260509105235 14 255 0.0 1.6 0.00 0.00 0.00 79 1024.5
20260509105130 14 255 0.0 1.6 0.00 0.00 0.00 79 1024.5
20260509105017 14 255 0.0 1.6 0.00 0.00 0.00 79 1024.4
20260509104906 14 255 0.0 0.0 0.00 0.00 0.00 79 1024.4
20260509104802 14 255 0.0 0.0 0.00 0.00 0.00 79 1024.4
20260509104700 14 255 0.0 0.0 0.00 0.00 0.00 79 1024.4
20260509104603 14 255 0.0 0.0 0.00 0.00 0.00 79 1024.4
20260509104450 14 255 0.0 0.0 0.00 0.00 0.00 79 1024.4
20260509104340 14 255 0.0 0.0 0.00 0.00 0.00 79 1024.4
20260509104230 14 255 0.0 0.0 0.00 0.00 0.00 79 1024.4
20260509104120 14 255 0.0 0.0 0.00 0.00 0.00 78 1024.4
20260509104010 14 255 0.0 1.6 0.00 0.00 0.00 79 1024.4
20260509103902 14 255 0.0 3.2 0.00 0.00 0.00 79 1024.4
20260509103757 14 255 0.0 3.2 0.00 0.00 0.00 79 1024.5
20260509103705 14 255 0.0 3.2 0.00 0.00 0.00 79 1024.4
20260509103557 14 255 0.0 3.2 0.00 0.00 0.00 79 1024.4
20260509103454 14 255 0.0 3.2 0.00 0.00 0.00 79 1024.4
20260509103355 15 255 0.0 3.2 0.00 0.00 0.00 79 1024.4
20260509103244 15 255 0.0 3.2 0.00 0.00 0.00 79 1024.3
20260509103134 15 255 0.0 3.2 0.00 0.00 0.00 78 1024.2
20260509102928 15 255 0.0 0.0 0.00 0.00 0.00 78 1024.4
20260509102826 15 255 0.0 0.0 0.00 0.00 0.00 78 1024.3
20260509102716 15 255 0.0 0.0 0.00 0.00 0.00 78 1024.3
20260509102604 15 255 0.0 0.0 0.00 0.00 0.00 78 1024.3
20260509102454 15 255 0.0 0.0 0.00 0.00 0.00 78 1024.4
20260509102344 15 255 0.0 0.0 0.00 0.00 0.00 78 1024.4
20260509102241 15 255 0.0 0.0 0.00 0.00 0.00 78 1024.3
20260509102142 15 255 0.0 0.0 0.00 0.00 0.00 78 1024.2
20260509102049 15 255 0.0 0.0 0.00 0.00 0.00 77 1024.3
20260509101924 15 255 0.0 0.0 0.00 0.00 0.00 77 1024.4
20260509101815 15 255 0.0 0.0 0.00 0.00 0.00 77 1024.3
20260509101706 15 255 0.0 0.0 0.00 0.00 0.00 77 1024.3
20260509101630 15 255 0.0 0.0 0.00 0.00 0.00 77 1024.2
20260509101444 15 255 0.0 0.0 0.00 0.00 0.00 77 1024.3
20260509101346 15 255 0.0 0.0 0.00 0.00 0.00 77 1024.2
20260509101226 15 255 0.0 0.0 0.00 0.00 0.00 77 1024.1
20260509101117 15 255 0.0 0.0 0.00 0.00 0.00 77 1024.2
20260509101011 15 255 0.0 0.0 0.00 0.00 0.00 76 1024.1
20260509100907 15 255 0.0 0.0 0.00 0.00 0.00 76 1024.1
20260509100805 15 255 0.0 0.0 0.00 0.00 0.00 76 1024.2
20260509100705 15 255 0.0 0.0 0.00 0.00 0.00 76 1024.0
20260509100602 15 255 0.0 0.0 0.00 0.00 0.00 76 1024.0
20260509100518 15 255 0.0 0.0 0.00 0.00 0.00 76 1024.0
20260509100352 15 255 0.0 0.0 0.00 0.00 0.00 76 1024.1
20260509100242 15 255 0.0 0.0 0.00 0.00 0.00 76 1024.0
20260509100133 15 255 0.0 0.0 0.00 0.00 0.00 76 1024.1
20260509095926 15 255 0.0 0.0 0.00 0.00 0.00 76 1024.0
20260509095810 15 255 0.0 0.0 0.00 0.00 0.00 76 1024.0
20260509095654 15 255 0.0 0.0 0.00 0.00 0.00 76 1024.0
20260509095542 15 255 0.0 0.0 0.00 0.00 0.00 75 1024.0
20260509095433 15 255 0.0 0.0 0.00 0.00 0.00 76 1024.0
20260509095331 15 255 0.0 0.0 0.00 0.00 0.00 75 1023.9
20260509095228 15 255 0.0 0.0 0.00 0.00 0.00 75 1023.9
20260509095128 15 255 0.0 0.0 0.00 0.00 0.00 75 1023.9
20260509095019 15 255 0.0 0.0 0.00 0.00 0.00 75 1023.9
20260509094917 15 255 0.0 0.0 0.00 0.00 0.00 75 1023.9
20260509094816 15 255 0.0 0.0 0.00 0.00 0.00 75 1024.0
20260509094714 15 255 0.0 0.0 0.00 0.00 0.00 75 1024.0
20260509094610 15 255 0.0 0.0 0.00 0.00 0.00 75 1023.9
20260509094400 16 255 0.0 0.0 0.00 0.00 0.00 75 1023.9
20260509094255 16 255 0.0 0.0 0.00 0.00 0.00 75 1023.9
20260509094148 16 255 0.0 0.0 0.00 0.00 0.00 75 1023.9
20260509094037 16 255 0.0 0.0 0.00 0.00 0.00 75 1023.9
20260509093933 16 255 0.0 3.2 0.00 0.00 0.00 75 1023.9
20260509093822 16 255 0.0 3.2 0.00 0.00 0.00 75 1023.9
20260509093713 16 255 0.0 3.2 0.00 0.00 0.00 75 1023.8
20260509093607 16 255 0.0 3.2 0.00 0.00 0.00 75 1023.8
20260509093510 16 255 0.0 3.2 0.00 0.00 0.00 75 1023.8
20260509093401 16 255 0.0 3.2 0.00 0.00 0.00 74 1023.8
20260509093252 16 255 0.0 3.2 0.00 0.00 0.00 74 1023.9
20260509093143 16 255 0.0 3.2 0.00 0.00 0.00 74 1023.9
20260509093041 16 255 0.0 3.2 0.00 0.00 0.00 74 1024.0
20260509092939 16 255 0.0 0.0 0.00 0.00 0.00 74 1023.9
20260509092837 16 255 0.0 0.0 0.00 0.00 0.00 74 1023.9
20260509092731 16 255 0.0 0.0 0.00 0.00 0.00 74 1023.9
20260509092623 16 255 0.0 0.0 0.00 0.00 0.00 74 1023.9
20260509092513 16 255 0.0 0.0 0.00 0.00 0.00 73 1023.8
20260509092406 16 255 0.0 0.0 0.00 0.00 0.00 73 1023.9
20260509092253 16 255 0.0 0.0 0.00 0.00 0.00 73 1023.9
20260509092142 16 255 0.0 0.0 0.00 0.00 0.00 74 1023.8
20260509092037 16 255 0.0 0.0 0.00 0.00 0.00 74 1023.8
20260509091939 16 255 0.0 0.0 0.00 0.00 0.00 74 1023.9
20260509091831 16 255 0.0 3.2 0.00 0.00 0.00 74 1023.8
20260509091727 16 255 0.0 3.2 0.00 0.00 0.00 73 1023.8
20260509091627 16 255 0.0 3.2 0.00 0.00 0.00 73 1023.8
20260509091525 16 255 0.0 3.2 0.00 0.00 0.00 73 1023.8
20260509091416 16 255 0.0 3.2 0.00 0.00 0.00 74 1023.7
20260509091309 16 255 0.0 3.2 0.00 0.00 0.00 73 1023.7
20260509091159 16 255 0.0 3.2 0.00 0.00 0.00 74 1023.7
20260509091049 16 255 0.0 3.2 0.00 0.00 0.00 73 1023.7
20260509090941 16 255 0.0 3.2 0.00 0.00 0.00 73 1023.8
20260509090835 16 255 0.0 3.2 0.00 0.00 0.00 73 1023.7
20260509090727 16 255 0.0 3.2 0.00 0.00 0.00 73 1023.6
20260509090614 16 255 0.0 3.2 0.00 0.00 0.00 73 1023.6
20260509090510 16 255 0.0 3.2 0.00 0.00 0.00 73 1023.6
20260509090410 16 255 0.0 3.2 0.00 0.00 0.00 73 1023.6
20260509090306 16 255 0.0 3.2 0.00 0.00 0.00 73 1023.6
20260509090159 16 255 0.0 3.2 0.00 0.00 0.00 73 1023.5
20260509090123 16 255 1.6 4.8 0.00 0.00 0.00 73 1023.6
20260509090100 16 255 1.6 4.8 0.00 0.00 0.00 73 1023.5
20260509085851 16 255 1.6 4.8 0.00 0.00 0.00 73 1023.6
20260509085751 16 255 0.0 4.8 0.00 0.00 0.00 73 1023.3
20260509085649 16 255 0.0 4.8 0.00 0.00 0.00 72 1023.4
20260509085539 16 255 0.0 4.8 0.00 0.00 0.00 72 1023.3
20260509085430 16 255 0.0 4.8 0.00 0.00 0.00 72 1023.4
20260509085326 16 255 0.0 4.8 0.00 0.00 0.00 72 1023.4
20260509085223 16 255 0.0 4.8 0.00 0.00 0.00 72 1023.3
20260509085123 16 255 0.0 4.8 0.00 0.00 0.00 71 1023.3
20260509085019 16 255 0.0 0.0 0.00 0.00 0.00 71 1023.4
20260509084908 16 255 0.0 0.0 0.00 0.00 0.00 71 1023.4
20260509084805 16 255 0.0 0.0 0.00 0.00 0.00 71 1023.2
20260509084708 17 255 0.0 0.0 0.00 0.00 0.00 71 1023.2
20260509084558 17 255 0.0 0.0 0.00 0.00 0.00 70 1023.3
20260509084458 17 255 0.0 0.0 0.00 0.00 0.00 70 1023.3
20260509084357 17 255 0.0 0.0 0.00 0.00 0.00 70 1023.2
20260509084247 17 255 0.0 1.6 0.00 0.00 0.00 71 1023.3
20260509084140 17 255 0.0 3.2 0.00 0.00 0.00 70 1023.3
20260509084026 17 255 0.0 3.2 0.00 0.00 0.00 70 1023.2
20260509083917 17 255 0.0 3.2 0.00 0.00 0.00 70 1023.3
20260509083807 17 255 0.0 4.8 0.00 0.00 0.00 70 1023.2
20260509083659 17 255 0.0 4.8 0.00 0.00 0.00 70 1023.2
20260509083555 17 255 0.0 4.8 0.00 0.00 0.00 70 1023.3
20260509083453 17 255 0.0 4.8 0.00 0.00 0.00 70 1023.3
20260509083350 17 255 0.0 4.8 0.00 0.00 0.00 70 1023.3
20260509083250 17 255 0.0 4.8 0.00 0.00 0.00 69 1023.3
20260509083150 17 261 0.0 4.8 0.00 0.00 0.00 69 1023.2
20260509083040 17 261 0.0 4.8 0.00 0.00 0.00 69 1023.2
20260509082821 17 273 0.0 3.2 0.00 0.00 0.00 68 1023.2
20260509082719 17 119 0.0 3.2 0.00 0.00 0.00 68 1023.2
20260509082620 17 119 0.0 3.2 0.00 0.00 0.00 68 1023.3
20260509082516 17 119 0.0 3.2 0.00 0.00 0.00 68 1023.2
20260509082404 17 119 0.0 3.2 0.00 0.00 0.00 68 1023.2
20260509082255 17 119 0.0 3.2 0.00 0.00 0.00 68 1023.2
20260509082145 17 119 0.0 1.6 0.00 0.00 0.00 68 1023.3
20260509082035 17 119 0.0 0.0 0.00 0.00 0.00 68 1023.2
20260509081930 17 119 0.0 0.0 0.00 0.00 0.00 68 1023.2
20260509081833 17 119 0.0 0.0 0.00 0.00 0.00 67 1023.0
20260509081722 17 119 0.0 0.0 0.00 0.00 0.00 67 1023.0
20260509081615 17 119 0.0 0.0 0.00 0.00 0.00 67 1022.9
20260509081504 18 119 0.0 0.0 0.00 0.00 0.00 67 1023.0
20260509081353 18 119 0.0 0.0 0.00 0.00 0.00 67 1022.9
20260509081243 18 119 0.0 0.0 0.00 0.00 0.00 67 1023.0
20260509081142 18 119 0.0 0.0 0.00 0.00 0.00 67 1023.0
20260509081039 18 119 0.0 0.0 0.00 0.00 0.00 67 1023.0
20260509080937 18 119 0.0 0.0 0.00 0.00 0.00 67 1022.9
20260509080829 18 119 0.0 0.0 0.00 0.00 0.00 67 1022.9
20260509080729 18 119 0.0 0.0 0.00 0.00 0.00 67 1022.9
20260509080630 18 119 0.0 0.0 0.00 0.00 0.00 67 1023.0
20260509080518 18 119 0.0 0.0 0.00 0.00 0.00 66 1023.0
20260509080413 18 119 0.0 0.0 0.00 0.00 0.00 66 1023.0
20260509080315 18 119 0.0 0.0 0.00 0.00 0.00 66 1023.0
20260509080205 18 119 0.0 0.0 0.00 0.00 0.00 65 1022.9
20260509080111 18 119 0.0 0.0 0.00 0.00 0.00 65 1023.0
20260509075944 18 119 0.0 0.0 0.00 0.00 0.00 65 1022.9
20260509075843 18 119 0.0 0.0 0.00 0.00 0.00 65 1022.9
20260509075741 18 119 0.0 0.0 0.00 0.00 0.00 65 1023.0
20260509075639 18 119 0.0 0.0 0.00 0.00 0.00 64 1023.0
20260509075535 18 119 0.0 0.0 0.00 0.00 0.00 64 1023.0
20260509075415 18 119 0.0 0.0 0.00 0.00 0.00 64 1022.9
20260509075306 18 119 0.0 0.0 0.00 0.00 0.00 64 1023.0
20260509075157 18 119 0.0 0.0 0.00 0.00 0.00 64 1023.0
20260509075106 18 119 0.0 0.0 0.00 0.00 0.00 64 1023.0
20260509075011 18 119 0.0 3.2 0.00 0.00 0.00 64 1022.9
20260509074856 19 119 0.0 3.2 0.00 0.00 0.00 63 1022.9
20260509074755 19 119 0.0 3.2 0.00 0.00 0.00 63 1022.9
20260509074649 19 119 0.0 3.2 0.00 0.00 0.00 62 1022.9
20260509074547 19 119 0.0 3.2 0.00 0.00 0.00 63 1023.0
20260509074447 19 119 0.0 3.2 0.00 0.00 0.00 63 1022.9
20260509074334 19 119 0.0 3.2 0.00 0.00 0.00 62 1022.9
20260509074226 19 119 0.0 3.2 0.00 0.00 0.00 62 1022.9
20260509074115 19 119 0.0 3.2 0.00 0.00 0.00 62 1022.8
20260509074014 19 119 0.0 0.0 0.00 0.00 0.00 62 1022.8
20260509073854 20 119 0.0 0.0 0.00 0.00 0.00 61 1022.8
20260509073745 20 119 0.0 0.0 0.00 0.00 0.00 61 1022.7
20260509073637 20 119 0.0 0.0 0.00 0.00 0.00 60 1022.8
20260509073538 20 119 0.0 0.0 0.00 0.00 0.00 60 1022.7
20260509073439 20 119 0.0 0.0 0.00 0.00 0.00 60 1022.7
20260509073335 20 119 0.0 0.0 0.00 0.00 0.00 60 1022.7
20260509073237 20 119 0.0 0.0 0.00 0.00 0.00 59 1022.7
20260509073132 20 119 0.0 0.0 0.00 0.00 0.00 59 1022.7
20260509073029 20 119 0.0 0.0 0.00 0.00 0.00 59 1022.7
20260509072926 20 119 0.0 0.0 0.00 0.00 0.00 59 1022.7
20260509072822 20 119 0.0 0.0 0.00 0.00 0.00 59 1022.7
20260509072703 20 119 0.0 0.0 0.00 0.00 0.00 58 1022.6
20260509072552 20 119 0.0 0.0 0.00 0.00 0.00 59 1022.6
20260509072446 20 119 0.0 0.0 0.00 0.00 0.00 59 1022.7
20260509072333 20 119 0.0 0.0 0.00 0.00 0.00 59 1022.6
20260509072231 20 119 0.0 0.0 0.00 0.00 0.00 59 1022.6
20260509072127 20 119 0.0 0.0 0.00 0.00 0.00 59 1022.7
20260509072028 21 119 0.0 0.0 0.00 0.00 0.00 58 1022.6
20260509071921 21 119 0.0 0.0 0.00 0.00 0.00 59 1022.6
20260509071813 21 119 0.0 0.0 0.00 0.00 0.00 58 1022.6
20260509071715 21 119 0.0 0.0 0.00 0.00 0.00 58 1022.6
20260509071607 21 119 0.0 0.0 0.00 0.00 0.00 57 1022.6
20260509071532 21 119 0.0 0.0 0.00 0.00 0.00 58 1022.5
20260509071450 21 119 0.0 0.0 0.00 0.00 0.00 57 1022.6
20260509071235 21 119 0.0 0.0 0.00 0.00 0.00 57 1022.6
20260509071125 21 119 0.0 0.0 0.00 0.00 0.00 57 1022.5
20260509071022 21 119 0.0 0.0 0.00 0.00 0.00 57 1022.5
20260509070919 21 119 0.0 0.0 0.00 0.00 0.00 56 1022.6
20260509070820 21 119 0.0 0.0 0.00 0.00 0.00 56 1022.4
20260509070709 21 119 0.0 0.0 0.00 0.00 0.00 56 1022.4
20260509070601 21 119 0.0 0.0 0.00 0.00 0.00 56 1022.4
20260509070449 21 119 0.0 0.0 0.00 0.00 0.00 55 1022.4
20260509070342 21 119 0.0 0.0 0.00 0.00 0.00 56 1022.3
20260509070237 21 119 0.0 0.0 0.00 0.00 0.00 56 1022.3
20260509070137 21 119 0.0 0.0 0.00 0.00 0.00 55 1022.4
20260509070028 21 119 0.0 0.0 0.00 0.00 0.00 55 1022.3
20260509065917 21 119 0.0 0.0 0.00 0.00 0.00 55 1022.2
20260509065807 21 119 0.0 0.0 0.00 0.00 0.00 54 1022.2
20260509065657 21 119 0.0 0.0 0.00 0.00 0.00 54 1022.1
20260509065546 21 119 0.0 0.0 0.00 0.00 0.00 54 1022.2
20260509065437 22 119 0.0 0.0 0.00 0.00 0.00 54 1022.2
20260509065335 22 119 0.0 0.0 0.00 0.00 0.00 54 1022.1
20260509064906 22 119 0.0 4.8 0.00 0.00 0.00 54 1022.1
20260509064759 22 119 0.0 4.8 0.00 0.00 0.00 54 1022.0
20260509064657 22 119 0.0 4.8 0.00 0.00 0.00 54 1022.1
20260509064558 22 119 0.0 4.8 0.00 0.00 0.00 54 1022.1
20260509064445 22 119 1.6 4.8 0.00 0.00 0.00 53 1022.2
20260509064342 22 119 1.6 4.8 0.00 0.00 0.00 53 1022.1
20260509064225 22 119 1.6 4.8 0.00 0.00 0.00 53 1022.0
20260509064118 22 119 1.6 8.0 0.00 0.00 0.00 53 1022.0
20260509064005 22 54 1.6 8.0 0.00 0.00 0.00 53 1022.0
20260509063855 22 49 1.6 8.0 0.00 0.00 0.00 53 1022.0
20260509063744 22 158 1.6 8.0 0.00 0.00 0.00 53 1022.1
20260509063635 22 111 1.6 8.0 0.00 0.00 0.00 52 1022.0
20260509063524 22 111 1.6 8.0 0.00 0.00 0.00 52 1022.0
20260509063415 22 132 3.2 8.0 0.00 0.00 0.00 52 1022.0
20260509063306 22 76 3.2 8.0 0.00 0.00 0.00 52 1022.0
20260509063155 22 85 3.2 8.0 0.00 0.00 0.00 52 1022.1
20260509063054 22 157 3.2 11.3 0.00 0.00 0.00 52 1022.0
20260509062953 22 71 3.2 11.3 0.00 0.00 0.00 52 1022.0
20260509062919 22 86 3.2 11.3 0.00 0.00 0.00 52 1021.9
20260509062733 22 93 3.2 11.3 0.00 0.00 0.00 52 1021.9
20260509062623 22 74 3.2 11.3 0.00 0.00 0.00 53 1021.9
20260509062516 22 112 3.2 11.3 0.00 0.00 0.00 53 1021.9
20260509062402 22 23 3.2 11.3 0.00 0.00 0.00 53 1021.9
20260509062254 22 45 1.6 11.3 0.00 0.00 0.00 52 1021.9
20260509062142 22 26 1.6 9.7 0.00 0.00 0.00 53 1021.8
20260509062033 22 71 1.6 9.7 0.00 0.00 0.00 53 1021.8
20260509061923 22 344 3.2 9.7 0.00 0.00 0.00 52 1021.8
20260509061813 22 67 3.2 9.7 0.00 0.00 0.00 53 1021.9
20260509061703 22 51 3.2 9.7 0.00 0.00 0.00 53 1021.9
20260509061555 22 73 3.2 9.7 0.00 0.00 0.00 52 1021.8
20260509061451 22 59 1.6 9.7 0.00 0.00 0.00 52 1021.8
20260509061351 22 59 3.2 6.4 0.00 0.00 0.00 51 1021.8
20260509061242 22 59 3.2 6.4 0.00 0.00 0.00 52 1021.9
20260509061131 22 63 3.2 6.4 0.00 0.00 0.00 51 1021.8
20260509061021 22 20 3.2 6.4 0.00 0.00 0.00 51 1021.8
20260509060910 22 38 3.2 6.4 0.00 0.00 0.00 51 1021.8
20260509060800 22 54 3.2 6.4 0.00 0.00 0.00 51 1021.8
20260509060651 22 55 3.2 8.0 0.00 0.00 0.00 51 1021.8
20260509060543 22 55 3.2 8.0 0.00 0.00 0.00 50 1021.8
20260509060435 22 90 3.2 8.0 0.00 0.00 0.00 50 1021.9
20260509060321 22 20 3.2 8.0 0.00 0.00 0.00 49 1021.8
20260509060216 22 150 3.2 8.0 0.00 0.00 0.00 51 1021.8
20260509060115 22 84 3.2 8.0 0.00 0.00 0.00 52 1021.7
20260509060015 22 90 1.6 8.0 0.00 0.00 0.00 50 1021.7
20260509055927 22 43 1.6 8.0 0.00 0.00 0.00 50 1021.7
20260509055817 22 52 1.6 8.0 0.00 0.00 0.00 49 1021.7
20260509055703 22 5 1.6 6.4 0.00 0.00 0.00 48 1021.7
20260509055601 22 48 1.6 9.7 0.00 0.00 0.00 50 1021.7
20260509055457 23 50 1.6 9.7 0.00 0.00 0.00 48 1021.7
20260509055400 23 63 1.6 9.7 0.00 0.00 0.00 50 1021.7
20260509055256 23 109 1.6 9.7 0.00 0.00 0.00 52 1021.7
20260509055200 23 111 3.2 9.7 0.00 0.00 0.00 50 1021.5
20260509055047 23 111 3.2 9.7 0.00 0.00 0.00 51 1021.7
20260509054937 23 111 3.2 9.7 0.00 0.00 0.00 49 1021.7
20260509054827 23 21 3.2 9.7 0.00 0.00 0.00 49 1021.7
20260509054716 23 167 3.2 9.7 0.00 0.00 0.00 49 1021.7
20260509054608 23 79 4.8 11.3 0.00 0.00 0.00 49 1021.8
20260509054457 23 75 4.8 11.3 0.00 0.00 0.00 47 1021.7
20260509054356 23 5 4.8 11.3 0.00 0.00 0.00 47 1021.8
20260509054152 23 94 3.2 11.3 0.00 0.00 0.00 48 1021.8
20260509054049 23 69 3.2 11.3 0.00 0.00 0.00 48 1021.8
20260509053950 23 82 3.2 11.3 0.00 0.00 0.00 47 1021.8
20260509053844 23 32 3.2 11.3 0.00 0.00 0.00 48 1021.8
20260509053729 23 355 3.2 11.3 0.00 0.00 0.00 48 1021.8
20260509053619 23 19 3.2 11.3 0.00 0.00 0.00 47 1021.8
20260509053509 23 20 3.2 11.3 0.00 0.00 0.00 47 1021.8
20260509053400 23 88 3.2 11.3 0.00 0.00 0.00 49 1021.7
20260509053249 23 83 3.2 11.3 0.00 0.00 0.00 46 1021.7
20260509053144 23 182 3.2 11.3 0.00 0.00 0.00 47 1021.8
20260509053043 23 12 3.2 11.3 0.00 0.00 0.00 48 1021.8
20260509052943 23 348 3.2 11.3 0.00 0.00 0.00 45 1021.8
20260509052839 23 74 3.2 11.3 0.00 0.00 0.00 47 1021.8
20260509052739 23 63 1.6 11.3 0.00 0.00 0.00 46 1021.8
20260509052628 23 30 1.6 8.0 0.00 0.00 0.00 46 1021.7
20260509052520 23 297 1.6 6.4 0.00 0.00 0.00 47 1021.7
20260509052300 23 24 1.6 6.4 0.00 0.00 0.00 47 1021.8
20260509052148 23 29 1.6 6.4 0.00 0.00 0.00 46 1021.7
20260509052037 23 348 1.6 6.4 0.00 0.00 0.00 47 1021.7
20260509051927 23 44 1.6 6.4 0.00 0.00 0.00 47 1021.8
20260509051817 23 16 1.6 6.4 0.00 0.00 0.00 46 1021.7
20260509051707 23 338 3.2 6.4 0.00 0.00 0.00 46 1021.8
20260509051557 23 96 3.2 8.0 0.00 0.00 0.00 47 1021.7
20260509051448 23 84 3.2 8.0 0.00 0.00 0.00 46 1021.8
20260509051336 23 85 3.2 8.0 0.00 0.00 0.00 45 1021.8
20260509051235 23 32 3.2 8.0 0.00 0.00 0.00 47 1021.8
20260509051137 24 64 3.2 8.0 0.00 0.00 0.00 49 1021.7
20260509051025 24 112 3.2 8.0 0.00 0.00 0.00 46 1021.7
20260509050915 24 78 3.2 8.0 0.00 0.00 0.00 45 1021.7
20260509050805 24 134 3.2 11.3 0.00 0.00 0.00 46 1021.7
20260509050701 24 157 3.2 11.3 0.00 0.00 0.00 43 1021.7
20260509050547 24 61 4.8 11.3 0.00 0.00 0.00 43 1021.6
20260509050437 25 79 4.8 11.3 0.00 0.00 0.00 44 1021.7
20260509050328 24 75 4.8 11.3 0.00 0.00 0.00 45 1021.8
20260509050218 24 95 4.8 11.3 0.00 0.00 0.00 46 1021.7
20260509050107 23 78 4.8 11.3 0.00 0.00 0.00 43 1021.7
20260509045957 23 65 4.8 11.3 0.00 0.00 0.00 43 1021.7
20260509045847 23 17 3.2 11.3 0.00 0.00 0.00 43 1021.6
20260509045742 23 91 3.2 11.3 0.00 0.00 0.00 43 1021.7
20260509045639 23 40 3.2 11.3 0.00 0.00 0.00 43 1021.7
20260509045538 24 106 3.2 9.7 0.00 0.00 0.00 43 1021.6
20260509045430 24 5 3.2 9.7 0.00 0.00 0.00 45 1021.7
20260509045323 24 25 3.2 9.7 0.00 0.00 0.00 43 1021.6
20260509045214 24 86 3.2 9.7 0.00 0.00 0.00 43 1021.6
20260509045105 24 72 4.8 8.0 0.00 0.00 0.00 42 1021.7
20260509044955 23 84 4.8 14.5 0.00 0.00 0.00 42 1021.6
20260509044852 23 344 3.2 14.5 0.00 0.00 0.00 43 1021.6
20260509044749 23 15 3.2 14.5 0.00 0.00 0.00 43 1021.5
20260509044648 23 51 3.2 14.5 0.00 0.00 0.00 42 1021.6
20260509044546 23 5 3.2 14.5 0.00 0.00 0.00 42 1021.6
20260509044442 24 0 3.2 14.5 0.00 0.00 0.00 43 1021.6
20260509044343 24 94 3.2 14.5 0.00 0.00 0.00 41 1021.5
20260509044240 24 77 3.2 14.5 0.00 0.00 0.00 45 1021.6
20260509044136 24 73 3.2 14.5 0.00 0.00 0.00 41 1021.6
20260509044032 24 43 3.2 12.9 0.00 0.00 0.00 42 1021.5
20260509043925 24 59 3.2 12.9 0.00 0.00 0.00 42 1021.5
20260509043817 24 298 4.8 12.9 0.00 0.00 0.00 42 1021.5
20260509043601 23 17 4.8 12.9 0.00 0.00 0.00 42 1021.4
20260509043453 23 321 4.8 12.9 0.00 0.00 0.00 41 1021.5
20260509043351 24 11 4.8 12.9 0.00 0.00 0.00 43 1021.5
20260509043252 24 84 4.8 16.1 0.00 0.00 0.00 42 1021.4
20260509043141 24 88 4.8 16.1 0.00 0.00 0.00 41 1021.5
20260509043031 24 30 4.8 16.1 0.00 0.00 0.00 40 1021.5
20260509042921 24 67 3.2 16.1 0.00 0.00 0.00 42 1021.4
20260509042812 24 93 3.2 16.1 0.00 0.00 0.00 42 1021.5
20260509042707 24 55 3.2 16.1 0.00 0.00 0.00 43 1021.5
20260509042605 24 223 3.2 16.1 0.00 0.00 0.00 42 1021.5
20260509042505 24 51 3.2 16.1 0.00 0.00 0.00 39 1021.6
20260509042402 24 155 3.2 16.1 0.00 0.00 0.00 41 1021.5
20260509042306 24 75 3.2 12.9 0.00 0.00 0.00 40 1021.5
20260509042201 24 57 3.2 12.9 0.00 0.00 0.00 41 1021.5
20260509042059 24 128 3.2 12.9 0.00 0.00 0.00 43 1021.6
20260509041959 24 355 3.2 9.7 0.00 0.00 0.00 43 1021.6
20260509041857 24 311 3.2 9.7 0.00 0.00 0.00 43 1021.5
20260509041753 24 311 3.2 9.7 0.00 0.00 0.00 42 1021.6
20260509041653 24 53 3.2 9.7 0.00 0.00 0.00 41 1021.5
20260509041547 24 57 3.2 9.7 0.00 0.00 0.00 41 1021.6
20260509041439 24 13 3.2 8.0 0.00 0.00 0.00 46 1021.6
20260509041328 24 332 3.2 12.9 0.00 0.00 0.00 43 1021.5
20260509041113 24 74 3.2 12.9 0.00 0.00 0.00 41 1021.6
20260509041013 24 44 3.2 12.9 0.00 0.00 0.00 43 1021.6
20260509040909 24 332 3.2 12.9 0.00 0.00 0.00 44 1021.6
20260509040800 24 36 3.2 12.9 0.00 0.00 0.00 40 1021.6
20260509040649 24 28 3.2 12.9 0.00 0.00 0.00 43 1021.6
20260509040542 24 93 3.2 12.9 0.00 0.00 0.00 44 1021.6
20260509040436 24 67 4.8 12.9 0.00 0.00 0.00 42 1021.6
20260509040336 24 63 4.8 14.5 0.00 0.00 0.00 43 1021.6
20260509040236 24 54 4.8 14.5 0.00 0.00 0.00 42 1021.6
20260509040125 24 83 4.8 14.5 0.00 0.00 0.00 45 1021.6